M I D A S
Marine Information and Data Acquisition System
Tripno 2058 of the Zeeleeuw from 2011-03-15 07:59:48 to 2011-03-15 15:20:23
Back to CruiseResearch ActivitiesStationsMapUnderway DataData graphs

EquipmentUnitsComment
TimeDGPSUTC
LatitudeDGPSDM.mWGS84
LongitudeDGPSDM.mWGS84
TemperatureSBE03/SBE38deg celciusITS90
ConductivitySBE21S/mITS90
SalinitySBE21 Practical Salinity Units
ChlorophylAChelsea fluorimeterg/lCalibrated in Aceton
Missing or incorrect values are displayed as -999
Sea surface data collected by the RV Zeeleeuw from 2011-03-15 07:57:52 to 2011-03-15 15:27:58
                                                                                    Next 1000 lines
Time Latitude Longitude Temperature Conductivity Salinity ChlorophylA
2011-03-15 07:58:02 51°13.662 2°55.959 14.2352 0.064919 0.37695 -3.020363
2011-03-15 07:58:07 51°13.662 2°55.96 14.2278 0.064919 0.37695 -3.020363
2011-03-15 07:58:12 51°13.662 2°55.959 14.233 0.064919 0.37695 -3.020363
2011-03-15 07:58:16 51°13.662 2°55.96 14.2307 0.064816 0.376341 -3.020363
2011-03-15 07:58:21 51°13.662 2°55.96 14.2343 0.064919 0.376958 -3.020363
2011-03-15 07:58:27 51°13.662 2°55.96 14.233 0.064919 0.376958 -3.020363
2011-03-15 07:58:32 51°13.662 2°55.96 14.2361 0.064919 0.376965 -3.020363
2011-03-15 07:58:37 51°13.662 2°55.96 14.2366 0.064919 0.376965 -3.020363
2011-03-15 07:58:41 51°13.662 2°55.96 14.239 0.064919 0.376965 -3.020363
2011-03-15 07:58:46 51°13.662 2°55.96 14.2374 0.064816 0.376355 -3.020363
2011-03-15 07:58:52 51°13.662 2°55.96 14.2383 0.064816 0.376355 -3.020363
2011-03-15 07:58:57 51°13.662 2°55.961 14.2383 0.064816 0.376355 -3.020363
2011-03-15 07:59:01 51°13.662 2°55.961 14.2409 0.064919 0.376972 -3.020363
2011-03-15 07:59:06 51°13.662 2°55.961 14.2396 0.064919 0.376972 -3.020363
2011-03-15 07:59:11 51°13.662 2°55.961 14.2434 0.064919 0.376972 -3.020363
2011-03-15 07:59:16 51°13.662 2°55.961 14.2418 0.064816 0.376355 -3.020363
2011-03-15 07:59:21 51°13.662 2°55.961 14.243 0.064919 0.376965 -3.020363
2011-03-15 07:59:25 51°13.662 2°55.961 14.2445 0.064919 0.376972 -3.020363
2011-03-15 07:59:30 51°13.662 2°55.961 14.245 0.064919 0.376972 -3.020363
2011-03-15 07:59:36 51°13.661 2°55.961 14.2467 0.064919 0.376972 -3.020363
2011-03-15 07:59:41 51°13.661 2°55.961 14.2475 0.064919 0.376972 -3.020363
2011-03-15 07:59:45 51°13.661 2°55.961 14.2488 0.064919 0.376979 -3.020363
2011-03-15 07:59:50 51°13.661 2°55.961 14.251 0.064919 0.376979 -3.020363
2011-03-15 07:59:56 51°13.661 2°55.961 14.2516 0.064919 0.376979 -3.020363
2011-03-15 08:00:01 51°13.661 2°55.961 14.2486 0.064919 0.376979 -3.020363
2011-03-15 08:00:06 51°13.661 2°55.961 14.2473 0.064919 0.376979 -3.020363
2011-03-15 08:00:11 51°13.661 2°55.96 14.2331 0.064919 0.376979 -3.020363
2011-03-15 08:00:16 51°13.661 2°55.96 14.2252 0.064816 0.376369 -3.020363
2011-03-15 08:00:21 51°13.661 2°55.958 14.142 0.064919 0.376987 -3.020363
2011-03-15 08:00:25 51°13.662 2°55.956 14.2755 0.064816 0.376369 -3.020363
2011-03-15 08:00:30 51°13.663 2°55.953 14.2643 0.064919 0.376987 -3.020363
2011-03-15 08:00:35 51°13.664 2°55.949 14.2574 0.064816 0.376377 -3.020363
2011-03-15 08:00:40 51°13.665 2°55.945 14.2509 0.064816 0.376377 -3.020363
2011-03-15 08:00:46 51°13.666 2°55.939 14.243 0.064919 0.376994 -3.020363
2011-03-15 08:00:52 51°13.668 2°55.933 14.2898 0.064919 0.376987 -3.020363
2011-03-15 08:00:57 51°13.669 2°55.927 14.2468 0.064816 0.376369 -3.020363
2011-03-15 08:01:03 51°13.671 2°55.919 14.2787 0.064919 0.376979 -3.020363
2011-03-15 08:01:08 51°13.672 2°55.912 14.3157 0.064816 0.376355 -3.020363
2011-03-15 08:01:13 51°13.674 2°55.904 14.3372 0.064816 0.376355 -3.020363
2011-03-15 08:01:18 51°13.676 2°55.896 14.3076 0.064816 0.376355 -3.020363
2011-03-15 08:01:23 51°13.677 2°55.888 14.3232 0.064919 0.376965 -3.020363
2011-03-15 08:01:28 51°13.679 2°55.88 14.3611 0.064816 0.376348 -3.020363
2011-03-15 08:01:33 51°13.681 2°55.872 14.3666 0.064919 0.376965 -3.020363
2011-03-15 08:01:38 51°13.682 2°55.864 14.3563 0.064816 0.376355 -3.020363
2011-03-15 08:01:43 51°13.684 2°55.856 14.3482 0.064816 0.376355 -3.020363
2011-03-15 08:01:48 51°13.686 2°55.848 14.3331 0.064919 0.376972 -3.020363
2011-03-15 08:01:53 51°13.687 2°55.84 14.3314 0.064919 0.376979 -3.020363
2011-03-15 08:01:58 51°13.688 2°55.832 14.3151 0.064919 0.376979 -3.020363
2011-03-15 08:02:03 51°13.69 2°55.824 14.3153 0.064816 0.376369 -3.020363
2011-03-15 08:02:08 51°13.691 2°55.815 14.3095 0.064919 0.376987 -3.020363
2011-03-15 08:02:13 51°13.692 2°55.807 14.31 0.064919 0.376987 -3.020363
2011-03-15 08:02:18 51°13.693 2°55.799 14.3101 0.064919 0.376994 -3.020363
2011-03-15 08:02:23 51°13.694 2°55.79 14.3098 0.064816 0.376384 -3.020363
2011-03-15 08:02:28 51°13.695 2°55.782 14.3113 0.064816 0.376384 -3.020363
2011-03-15 08:02:33 51°13.696 2°55.773 14.3069 0.064919 0.377008 -3.020363
2011-03-15 08:02:38 51°13.696 2°55.765 14.3101 0.064919 0.377008 -3.020363
2011-03-15 08:02:43 51°13.697 2°55.757 14.3093 0.064919 0.377008 -3.020363
2011-03-15 08:02:48 51°13.697 2°55.75 14.3125 0.064919 0.377016 -3.020363
2011-03-15 08:02:53 51°13.697 2°55.743 14.315 0.064816 0.376398 -3.020363
2011-03-15 08:02:58 51°13.697 2°55.737 14.2906 0.064919 0.377016 -3.020363
2011-03-15 08:03:03 51°13.697 2°55.733 14.3046 0.064919 0.377073 -3.020363
2011-03-15 08:03:08 51°13.698 2°55.73 14.307 0.064919 0.377131 -3.020363
2011-03-15 08:03:13 51°13.698 2°55.728 14.325 0.064919 0.377131 -3.020363
2011-03-15 08:03:18 51°13.698 2°55.727 14.334 0.064816 0.376557 -3.020363
2011-03-15 08:03:22 51°13.698 2°55.727 14.3343 0.064919 0.37716 -3.020363
2011-03-15 08:03:27 51°13.699 2°55.726 14.3305 0.064816 0.376499 -3.020363
2011-03-15 08:03:32 51°13.7 2°55.727 14.3275 0.064816 0.376427 -3.020363
2011-03-15 08:03:37 51°13.701 2°55.727 14.3252 0.064816 0.376348 -3.020363
2011-03-15 08:03:42 51°13.702 2°55.728 14.3257 0.064816 0.376348 -3.020363
2011-03-15 08:03:46 51°13.703 2°55.729 14.3236 0.064816 0.37629 -3.020363
2011-03-15 08:03:51 51°13.704 2°55.73 14.325 0.064816 0.376268 -3.020363
2011-03-15 08:03:56 51°13.706 2°55.731 14.3243 0.064816 0.376283 -3.020363
2011-03-15 08:04:01 51°13.708 2°55.733 14.326 0.064816 0.376326 -3.020363
2011-03-15 08:04:06 51°13.71 2°55.734 14.3189 0.064816 0.376384 -3.020363
2011-03-15 08:04:10 51°13.711 2°55.734 14.2703 0.064816 0.376384 -3.020363
2011-03-15 08:04:15 51°13.713 2°55.734 14.2604 0.064816 0.376434 -3.020363
2011-03-15 08:04:21 51°13.713 2°55.735 14.3198 0.064816 0.376463 -3.020363
2011-03-15 08:04:26 51°13.713 2°55.734 14.1737 0.064816 0.376485 -3.020363
2011-03-15 08:04:30 51°13.713 2°55.734 14.366 0.064816 0.376485 -3.020363
2011-03-15 08:04:35 51°13.711 2°55.734 14.3154 0.064816 0.376471 -3.020363
2011-03-15 08:04:40 51°13.71 2°55.733 14.378 0.064816 0.376471 -3.020363
2011-03-15 08:04:45 51°13.708 2°55.733 14.295 0.064816 0.376449 -3.020363
2011-03-15 08:04:50 51°13.706 2°55.732 14.3203 0.064816 0.376413 -3.020363
2011-03-15 08:04:55 51°13.705 2°55.732 14.3392 0.064816 0.376391 -3.020363
2011-03-15 08:05:01 51°13.704 2°55.731 14.3709 0.064816 0.376377 -3.020363
2011-03-15 08:05:07 51°13.704 2°55.731 14.3813 0.064816 0.376369 -3.020363
2011-03-15 08:05:13 51°13.705 2°55.731 14.4262 0.064816 0.376369 -3.020363
2011-03-15 08:05:18 51°13.707 2°55.73 14.4409 0.064816 0.376377 -3.020363
2011-03-15 08:05:23 51°13.709 2°55.729 14.4532 0.064816 0.376391 -3.020363
2011-03-15 08:05:28 51°13.713 2°55.727 14.4205 0.064816 0.376406 -3.020363
2011-03-15 08:05:33 51°13.717 2°55.725 14.4075 0.064919 0.37703 -3.020363
2011-03-15 08:05:38 51°13.722 2°55.721 14.3934 0.064919 0.377023 -3.020363
2011-03-15 08:05:42 51°13.726 2°55.718 14.4003 0.064919 0.377023 -3.020363
2011-03-15 08:05:47 51°13.732 2°55.713 14.3326 0.064919 0.37703 -3.020363
2011-03-15 08:05:52 51°13.739 2°55.707 14.2934 0.064919 0.377023 -3.020363
2011-03-15 08:05:57 51°13.747 2°55.701 14.2987 0.064816 0.376406 -3.020363
2011-03-15 08:06:02 51°13.755 2°55.694 14.2961 0.064816 0.376406 -3.020363
2011-03-15 08:06:06 51°13.763 2°55.689 14.2325 0.064816 0.376413 -3.020363
2011-03-15 08:06:11 51°13.772 2°55.682 14.2368 0.064816 0.376413 -3.020363
2011-03-15 08:06:17 51°13.784 2°55.673 14.1519 0.064816 0.376413 -3.020363
2011-03-15 08:06:22 51°13.795 2°55.665 14.1746 0.064919 0.37703 -3.020363
2011-03-15 08:06:26 51°13.804 2°55.659 14.2217 0.064816 0.376427 -3.020363
2011-03-15 08:06:31 51°13.815 2°55.651 14.1947 0.064919 0.377052 -3.020363
2011-03-15 08:06:36 51°13.827 2°55.642 14.1964 0.064919 0.377066 -3.020363
2011-03-15 08:06:41 51°13.838 2°55.633 14.189 0.064919 0.377066 -3.020363
2011-03-15 08:06:46 51°13.85 2°55.624 14.1495 0.064816 0.376449 -3.020363
2011-03-15 08:06:50 51°13.859 2°55.616 14.1276 0.064919 0.377073 -3.020363
2011-03-15 08:06:55 51°13.872 2°55.608 14.1514 0.064816 0.376449 -3.020363
2011-03-15 08:07:00 51°13.884 2°55.599 14.1855 0.064816 0.376449 -3.020363
2011-03-15 08:07:05 51°13.896 2°55.589 14.1664 0.064816 0.376449 -3.020363
2011-03-15 08:07:10 51°13.909 2°55.58 14.1795 0.064816 0.376449 -3.020363
2011-03-15 08:07:14 51°13.919 2°55.573 14.179 0.064816 0.376449 -3.020363
2011-03-15 08:07:19 51°13.931 2°55.564 14.1862 0.064816 0.376456 -3.020363
2011-03-15 08:07:25 51°13.947 2°55.553 14.2023 0.064816 0.376456 -3.020363
2011-03-15 08:07:30 51°13.96 2°55.544 14.1952 0.064816 0.376463 -3.020363
2011-03-15 08:07:34 51°13.97 2°55.536 14.1944 0.064816 0.376463 -3.020363
2011-03-15 08:07:39 51°13.983 2°55.527 14.2295 0.064816 0.376463 -3.020363
2011-03-15 08:07:44 51°13.995 2°55.517 14.2177 0.064816 0.376471 -3.020363
2011-03-15 08:07:50 51°14.011 2°55.505 14.1752 0.064816 0.376471 -3.020363
2011-03-15 08:07:54 51°14.021 2°55.498 14.2066 0.064816 0.376471 -3.020363
2011-03-15 08:07:58 51°14.031 2°55.49 14.2171 0.064816 0.376478 -3.020363
2011-03-15 08:08:04 51°14.047 2°55.479 14.2084 0.064816 0.376471 -3.020363
2011-03-15 08:08:09 51°14.06 2°55.47 14.2852 0.064816 0.376471 -3.020363
2011-03-15 08:08:14 51°14.073 2°55.461 14.2971 0.064816 0.376478 -3.020363
2011-03-15 08:08:19 51°14.086 2°55.451 14.2594 0.064816 0.376478 -3.020363
2011-03-15 08:08:24 51°14.1 2°55.441 14.2824 0.064919 0.377095 -3.020363
2011-03-15 08:08:30 51°14.116 2°55.429 14.2729 0.064816 0.376485 -3.020363
2011-03-15 08:08:34 51°14.126 2°55.421 14.2492 0.064816 0.376478 -3.020363
2011-03-15 08:08:38 51°14.137 2°55.413 14.3132 0.064816 0.376478 -3.020363
2011-03-15 08:08:44 51°14.153 2°55.4 14.2324 0.064816 0.376492 -3.020363
2011-03-15 08:08:50 51°14.169 2°55.388 14.2249 0.064816 0.376492 -3.020363
2011-03-15 08:08:54 51°14.18 2°55.379 14.3154 0.064816 0.376492 -3.020363
2011-03-15 08:09:00 51°14.196 2°55.366 14.3504 0.064816 0.376499 -3.020363
2011-03-15 08:09:04 51°14.207 2°55.357 14.2998 0.064816 0.376499 -3.020363
2011-03-15 08:09:09 51°14.22 2°55.345 14.3541 0.064816 0.376499 -3.020363
2011-03-15 08:09:14 51°14.234 2°55.334 14.1704 0.064816 0.376507 -3.020363
2011-03-15 08:09:19 51°14.247 2°55.322 14.317 0.064816 0.376499 -3.020363
2011-03-15 08:09:25 51°14.263 2°55.308 14.2906 0.064816 0.376507 -3.020363
2011-03-15 08:09:30 51°14.276 2°55.295 14.3082 0.064816 0.376507 -3.020363
2011-03-15 08:09:34 51°14.286 2°55.285 14.2761 0.064816 0.376514 -3.020363
2011-03-15 08:09:40 51°14.302 2°55.269 14.1865 0.064816 0.376514 -3.020363
2011-03-15 08:09:46 51°14.318 2°55.253 14.1271 0.064816 0.376507 -3.020363
2011-03-15 08:09:50 51°14.329 2°55.242 14.1024 0.064816 0.376507 -3.020363
2011-03-15 08:09:55 51°14.343 2°55.229 14.2833 0.064816 0.376507 -3.020363
2011-03-15 08:10:01 51°14.359 2°55.213 14.1226 0.064816 0.376514 -3.020363
2011-03-15 08:10:06 51°14.373 2°55.199 14.2917 0.064816 0.376514 -3.020363
2011-03-15 08:10:10 51°14.385 2°55.188 14.2522 0.064816 0.376514 -3.020363
2011-03-15 08:10:16 51°14.401 2°55.171 14.295 0.064816 0.376521 -3.020363
2011-03-15 08:10:21 51°14.416 2°55.156 14.2999 0.064816 0.376528 -3.020363
2011-03-15 08:10:26 51°14.43 2°55.14 14.0939 0.064816 0.376536 -3.020363
2011-03-15 08:10:30 51°14.441 2°55.127 14.2656 0.064816 0.376528 -3.020363
2011-03-15 08:10:35 51°14.455 2°55.112 14.0964 0.064816 0.376536 -3.020363
2011-03-15 08:10:40 51°14.469 2°55.095 14.1011 0.064816 0.376536 -3.020363
2011-03-15 08:10:45 51°14.483 2°55.079 14.2315 0.064816 0.376528 -3.020363
2011-03-15 08:10:50 51°14.498 2°55.064 14.1806 0.064816 0.376536 -3.020363
2011-03-15 08:10:54 51°14.51 2°55.051 14.2169 0.064816 0.376536 -3.020363
2011-03-15 08:10:59 51°14.525 2°55.035 14.1989 0.064816 0.376536 -3.020363
2011-03-15 08:11:04 51°14.54 2°55.02 14.225 0.064816 0.376543 -3.020363
2011-03-15 08:11:09 51°14.555 2°55.004 14.1827 0.064816 0.376543 -3.020363
2011-03-15 08:11:14 51°14.57 2°54.987 14.2313 0.064816 0.376543 -3.020363
2011-03-15 08:11:19 51°14.585 2°54.971 14.2189 0.064816 0.37655 -3.020363
2011-03-15 08:11:24 51°14.599 2°54.954 14.1133 0.064816 0.376536 -3.020363
2011-03-15 08:11:29 51°14.615 2°54.939 14.0562 0.064816 0.376528 -3.020363
2011-03-15 08:11:34 51°14.63 2°54.925 14.1794 0.064816 0.376543 -3.020363
2011-03-15 08:11:39 51°14.646 2°54.911 14.2008 0.064816 0.376543 -3.020363
2011-03-15 08:11:44 51°14.662 2°54.896 14.2371 0.064816 0.376543 -3.020363
2011-03-15 08:11:49 51°14.677 2°54.881 14.0978 0.064816 0.376557 -3.020363
2011-03-15 08:11:54 51°14.692 2°54.865 14.1516 0.064816 0.37655 -3.020363
2011-03-15 08:11:59 51°14.707 2°54.849 14.1382 0.064816 0.37655 -3.020363
2011-03-15 08:12:04 51°14.722 2°54.833 14.1691 0.064816 0.37655 -3.020363
2011-03-15 08:12:09 51°14.737 2°54.818 14.0979 0.064816 0.37655 -3.020363
2011-03-15 08:12:14 51°14.752 2°54.802 14.1441 0.064816 0.376543 -3.020363
2011-03-15 08:12:19 51°14.768 2°54.786 14.1499 0.064816 0.376557 -3.020363
2011-03-15 08:12:24 51°14.782 2°54.77 14.1076 0.064816 0.376557 -3.020363
2011-03-15 08:12:30 51°14.8 2°54.751 14.1658 0.064816 0.376564 -3.020363
2011-03-15 08:12:34 51°14.812 2°54.737 14.1375 0.064816 0.376564 -3.020363
2011-03-15 08:12:38 51°14.823 2°54.723 14.0566 0.064816 0.376564 -3.020363
2011-03-15 08:12:44 51°14.84 2°54.703 14.0833 0.064816 0.376579 -3.020363
2011-03-15 08:12:49 51°14.853 2°54.684 14.0925 0.064816 0.376572 -3.020363
2011-03-15 08:12:54 51°14.867 2°54.667 14.1043 0.064816 0.376579 -3.020363
2011-03-15 08:12:59 51°14.881 2°54.648 14.1042 0.064816 0.376572 -3.020363
2011-03-15 08:13:04 51°14.894 2°54.629 14.0903 0.064816 0.376564 -3.020363
2011-03-15 08:13:09 51°14.907 2°54.61 14.0999 0.064816 0.376564 -3.020363
2011-03-15 08:13:14 51°14.921 2°54.593 13.9957 0.064816 0.376564 -3.020363
2011-03-15 08:13:18 51°14.932 2°54.577 14.1148 0.064816 0.376557 -3.020363
2011-03-15 08:13:24 51°14.948 2°54.556 14.0915 0.064816 0.376564 -3.020363
2011-03-15 08:13:29 51°14.962 2°54.537 14.0798 0.064816 0.376557 -3.020363
2011-03-15 08:13:34 51°14.976 2°54.52 14.033 0.064816 0.376557 -3.020363
2011-03-15 08:13:39 51°14.99 2°54.502 14.0904 0.064816 0.376557 -3.020363
2011-03-15 08:13:44 51°15.005 2°54.485 14.1185 0.064816 0.376564 -3.020363
2011-03-15 08:13:49 51°15.019 2°54.468 14.0883 0.064816 0.376564 -3.020363
2011-03-15 08:13:54 51°15.034 2°54.451 14.0796 0.064816 0.376572 -3.020363
2011-03-15 08:13:58 51°15.045 2°54.436 14.0953 0.064816 0.376579 -3.020363
2011-03-15 08:14:04 51°15.062 2°54.414 14.0218 0.064816 0.376572 -3.020363
2011-03-15 08:14:09 51°15.075 2°54.395 14.0917 0.064816 0.376572 -3.020363
2011-03-15 08:14:14 51°15.089 2°54.377 14.0595 0.064816 0.376572 -3.020363
2011-03-15 08:14:19 51°15.102 2°54.357 14.0603 0.064816 0.376564 -3.020363
2011-03-15 08:14:25 51°15.119 2°54.334 14.0176 0.064816 0.376564 -3.020363
2011-03-15 08:14:29 51°15.13 2°54.319 14 0.064816 0.376564 -3.020363
2011-03-15 08:14:34 51°15.144 2°54.301 14.0743 0.064816 0.376564 -3.020363
2011-03-15 08:14:39 51°15.158 2°54.283 14.0481 0.064816 0.376564 -3.020363
2011-03-15 08:14:44 51°15.172 2°54.264 14.0688 0.064816 0.376557 -3.020363
2011-03-15 08:14:49 51°15.186 2°54.246 14.0887 0.064816 0.376564 -3.020363
2011-03-15 08:14:54 51°15.2 2°54.228 14.0946 0.064816 0.376564 -3.020363
2011-03-15 08:14:59 51°15.214 2°54.21 14.0594 0.064816 0.376564 -3.020363
2011-03-15 08:15:04 51°15.228 2°54.191 14.07 0.064816 0.376564 -3.020363
2011-03-15 08:15:09 51°15.242 2°54.173 14.0604 0.064816 0.376564 -3.020363
2011-03-15 08:15:14 51°15.256 2°54.155 14.0417 0.064816 0.376564 -3.020363
2011-03-15 08:15:19 51°15.27 2°54.136 14.0371 0.064816 0.376564 -3.020363
2011-03-15 08:15:24 51°15.284 2°54.118 14.0385 0.064816 0.376557 -3.020363
2011-03-15 08:15:29 51°15.298 2°54.1 14.0514 0.064816 0.376564 -3.020363
2011-03-15 08:15:34 51°15.312 2°54.082 14.0695 0.064816 0.376564 -3.020363
2011-03-15 08:15:39 51°15.326 2°54.064 14.0631 0.064816 0.376564 -3.020363
2011-03-15 08:15:44 51°15.34 2°54.046 14.0593 0.064816 0.376564 -3.020363
2011-03-15 08:15:49 51°15.355 2°54.028 14.0144 0.064816 0.376564 -3.020363
2011-03-15 08:15:54 51°15.369 2°54.01 14.0429 0.064816 0.376564 -3.020363
2011-03-15 08:15:59 51°15.383 2°53.992 14.0442 0.064816 0.376564 -3.020363
2011-03-15 08:16:04 51°15.397 2°53.974 14.0257 0.064816 0.376564 -3.020363
2011-03-15 08:16:09 51°15.411 2°53.956 14.0432 0.064816 0.376564 -3.020363
2011-03-15 08:16:14 51°15.425 2°53.939 14.0162 0.064816 0.376557 -3.020363
2011-03-15 08:16:19 51°15.44 2°53.921 14.0067 0.064816 0.376564 -3.020363
2011-03-15 08:16:24 51°15.454 2°53.904 14.0456 0.064816 0.376557 -3.020363
2011-03-15 08:16:29 51°15.468 2°53.887 14.05 0.064816 0.376557 -3.020363
2011-03-15 08:16:34 51°15.483 2°53.87 14.058 0.064816 0.376557 -3.020363
2011-03-15 08:16:38 51°15.495 2°53.856 14.0523 0.064816 0.376557 -3.020363
2011-03-15 08:16:44 51°15.512 2°53.835 14.0198 0.064816 0.376557 -3.020363
2011-03-15 08:16:50 51°15.529 2°53.815 14.0108 0.064816 0.376557 -3.020363
2011-03-15 08:16:54 51°15.541 2°53.801 14.0468 0.064816 0.376557 -3.020363
2011-03-15 08:16:58 51°15.552 2°53.787 14.0464 0.064816 0.376564 -3.020363
2011-03-15 08:17:04 51°15.569 2°53.766 13.989 0.064816 0.376557 -3.020363
2011-03-15 08:17:09 51°15.584 2°53.749 13.982 0.064816 0.376557 -3.020363
2011-03-15 08:17:14 51°15.598 2°53.732 14.0618 0.064816 0.376557 -3.020363
2011-03-15 08:17:19 51°15.612 2°53.715 14.0417 0.064816 0.376557 -3.020363
2011-03-15 08:17:24 51°15.627 2°53.698 14.0185 0.064816 0.376557 -3.020363
2011-03-15 08:17:29 51°15.641 2°53.681 14.0257 0.064816 0.376557 -3.020363
2011-03-15 08:17:34 51°15.656 2°53.664 14.0043 0.064816 0.376557 -3.020363
2011-03-15 08:17:39 51°15.67 2°53.647 14.0348 0.064816 0.376557 -3.020363
2011-03-15 08:17:44 51°15.685 2°53.629 14.0568 0.064816 0.37655 -3.020363
2011-03-15 08:17:49 51°15.699 2°53.612 14.0515 0.064816 0.37655 -3.020363
2011-03-15 08:17:54 51°15.714 2°53.595 14.0493 0.064816 0.376543 -3.020363
2011-03-15 08:17:59 51°15.728 2°53.578 14.0363 0.064816 0.376543 -3.020363
2011-03-15 08:18:04 51°15.742 2°53.561 14.027 0.064816 0.376543 -3.020363
2011-03-15 08:18:09 51°15.757 2°53.544 14.0095 0.064816 0.376543 -3.020363
2011-03-15 08:18:14 51°15.771 2°53.526 14.0146 0.064816 0.376543 -3.020363
2011-03-15 08:18:19 51°15.786 2°53.509 14.0208 0.064816 0.376543 -3.020363
2011-03-15 08:18:24 51°15.8 2°53.492 13.9773 0.064816 0.376528 -3.020363
2011-03-15 08:18:29 51°15.816 2°53.476 13.9773 0.064816 0.376528 -3.020363
2011-03-15 08:18:34 51°15.831 2°53.461 13.9721 0.064816 0.376528 -3.020363
2011-03-15 08:18:39 51°15.846 2°53.447 13.9766 0.064816 0.376528 -3.020363
2011-03-15 08:18:44 51°15.862 2°53.433 14.0358 0.064816 0.376528 -3.020363
2011-03-15 08:18:49 51°15.879 2°53.42 14.0459 0.064816 0.376528 -3.020363
2011-03-15 08:18:54 51°15.895 2°53.406 14.0443 0.064816 0.376528 -3.020363
2011-03-15 08:18:59 51°15.911 2°53.393 14.0246 0.064816 0.376528 -3.020363
2011-03-15 08:19:04 51°15.927 2°53.38 14.0184 0.064816 0.376528 -3.020363
2011-03-15 08:19:09 51°15.943 2°53.367 14.0286 0.064816 0.376528 -3.020363
2011-03-15 08:19:14 51°15.96 2°53.354 14.0119 0.064816 0.376528 -3.020363
2011-03-15 08:19:19 51°15.976 2°53.341 14.0432 0.064816 0.376528 -3.020363
2011-03-15 08:19:24 51°15.992 2°53.328 14.032 0.064816 0.376528 -3.020363
2011-03-15 08:19:29 51°16.009 2°53.316 14.032 0.064816 0.376528 -3.020363
2011-03-15 08:19:34 51°16.025 2°53.303 14.0497 0.064816 0.376528 -3.020363
2011-03-15 08:19:38 51°16.038 2°53.292 14.0375 0.064816 0.376528 -3.020363
2011-03-15 08:19:44 51°16.058 2°53.277 14.0343 0.064816 0.376528 -3.020363
2011-03-15 08:19:49 51°16.074 2°53.264 14.0164 0.064816 0.376528 -3.020363
2011-03-15 08:19:54 51°16.091 2°53.253 14.0323 0.064816 0.376528 -3.020363
2011-03-15 08:19:58 51°16.104 2°53.243 14.0135 0.064816 0.376536 -3.020363
2011-03-15 08:20:04 51°16.124 2°53.228 14.0427 0.064816 0.376536 -3.020363
2011-03-15 08:20:09 51°16.141 2°53.215 14.0543 0.064816 0.376536 -3.020363
2011-03-15 08:20:14 51°16.157 2°53.202 14.0079 0.064816 0.376536 -3.020363
2011-03-15 08:20:19 51°16.173 2°53.189 14.0169 0.064816 0.376536 -3.020363
2011-03-15 08:20:24 51°16.189 2°53.175 14.0175 0.064816 0.376543 -3.020363
2011-03-15 08:20:29 51°16.206 2°53.162 14.0163 0.064816 0.376543 -3.020363
2011-03-15 08:20:34 51°16.222 2°53.149 14.0237 0.064816 0.376543 -3.020363
2011-03-15 08:20:39 51°16.239 2°53.136 14.0193 0.064816 0.376543 -3.020363
2011-03-15 08:20:44 51°16.255 2°53.123 14.0154 0.064816 0.37655 -3.020363
2011-03-15 08:20:49 51°16.271 2°53.11 14.0113 0.064816 0.37655 -3.020363
2011-03-15 08:20:54 51°16.288 2°53.098 14.004 0.064816 0.376557 -3.020363
2011-03-15 08:20:58 51°16.301 2°53.088 14.0159 0.064816 0.376557 -3.020363
2011-03-15 08:21:04 51°16.321 2°53.072 14.0281 0.064816 0.376557 -3.020363
2011-03-15 08:21:09 51°16.337 2°53.059 14.0175 0.064816 0.376557 -3.020363
2011-03-15 08:21:14 51°16.353 2°53.047 14.029 0.064816 0.376557 -3.020363
2011-03-15 08:21:19 51°16.37 2°53.034 14.0182 0.064816 0.376564 -3.020363
2011-03-15 08:21:24 51°16.386 2°53.021 14.0071 0.064816 0.376572 -3.020363
2011-03-15 08:21:29 51°16.403 2°53.007 14.0269 0.064816 0.376572 -3.020363
2011-03-15 08:21:34 51°16.419 2°52.994 14.0077 0.064816 0.376572 -3.020363
2011-03-15 08:21:39 51°16.435 2°52.981 14.0079 0.064816 0.376572 -3.020363
2011-03-15 08:21:44 51°16.452 2°52.968 14.0009 0.064816 0.376579 -3.020363
2011-03-15 08:21:49 51°16.468 2°52.955 13.9981 0.064816 0.376579 -3.020363
2011-03-15 08:21:54 51°16.485 2°52.942 13.9824 0.064816 0.376579 -3.020363
2011-03-15 08:21:59 51°16.501 2°52.929 14.0073 0.064816 0.376593 -3.020363
2011-03-15 08:22:04 51°16.518 2°52.916 14.0081 0.064816 0.376593 -3.020363
2011-03-15 08:22:09 51°16.534 2°52.903 13.9038 0.064816 0.376593 -3.020363
2011-03-15 08:22:14 51°16.551 2°52.89 12.0138 0.064919 0.377298 -3.020363
2011-03-15 08:22:19 51°16.567 2°52.878 8.9892 0.064816 0.375412 -3.020363
2011-03-15 08:22:24 51°16.584 2°52.865 8.593 0.064816 0.376839 -3.020363
2011-03-15 08:22:29 51°16.6 2°52.853 7.9221 0.106047 0.625897 -3.020363
2011-03-15 08:22:34 51°16.617 2°52.839 7.2193 1.870171 13.313915 -3.020363
2011-03-15 08:22:39 51°16.633 2°52.827 6.9556 1.870171 13.313915 -3.020363
2011-03-15 08:22:44 51°16.65 2°52.814 6.744 2.398972 17.948326 -3.020363
2011-03-15 08:22:49 51°16.666 2°52.801 6.6778 2.984922 24.10892 -3.020363
2011-03-15 08:22:54 51°16.682 2°52.788 6.6577 3.37551 29.278674 -3.020363
2011-03-15 08:22:59 51°16.699 2°52.774 6.5941 3.462984 30.602811 -3.020363
2011-03-15 08:23:04 51°16.715 2°52.761 6.5348 3.457407 31.605209 -3.020363
2011-03-15 08:23:09 51°16.731 2°52.749 6.4791 3.457407 31.605209 -3.020363
2011-03-15 08:23:14 51°16.748 2°52.735 6.4854 3.402968 31.792762 -3.020363
2011-03-15 08:23:19 51°16.764 2°52.722 6.4965 3.356191 31.853152 -3.020363
2011-03-15 08:23:24 51°16.78 2°52.709 6.3904 3.314487 31.77518 -3.020363
2011-03-15 08:23:29 51°16.796 2°52.696 6.4164 3.276925 31.711397 -3.020363
2011-03-15 08:23:34 51°16.812 2°52.683 6.3779 3.254265 31.635031 -3.020363
2011-03-15 08:23:39 51°16.829 2°52.67 6.2921 3.254265 31.635031 -3.020363
2011-03-15 08:23:44 51°16.845 2°52.657 6.282 3.229122 31.498984 -3.020363
2011-03-15 08:23:49 51°16.861 2°52.644 6.2407 3.213188 31.409998 -3.020363
2011-03-15 08:23:54 51°16.877 2°52.632 6.1941 3.204808 31.408589 -3.020363
2011-03-15 08:23:59 51°16.894 2°52.619 6.1904 3.198083 31.39787 -3.020363
2011-03-15 08:24:04 51°16.91 2°52.607 6.2408 3.188462 31.343633 -3.020363
2011-03-15 08:24:09 51°16.927 2°52.595 6.1844 3.188462 31.343633 -3.020363
2011-03-15 08:24:14 51°16.944 2°52.583 6.1565 3.184531 31.360706 -3.020363
2011-03-15 08:24:19 51°16.96 2°52.57 6.145 3.177806 31.342209 -3.020363
2011-03-15 08:24:24 51°16.977 2°52.558 6.18 3.173151 31.325685 -3.020363
2011-03-15 08:24:29 51°16.993 2°52.546 6.1349 3.171393 31.361477 -3.020363
2011-03-15 08:24:34 51°17.01 2°52.534 6.1141 3.169634 31.372377 -3.020363
2011-03-15 08:24:39 51°17.026 2°52.522 6.1103 3.169634 31.372377 -3.020363
2011-03-15 08:24:44 51°17.043 2°52.51 6.1519 3.167669 31.381897 -3.020363
2011-03-15 08:24:49 51°17.06 2°52.498 6.1091 3.163117 31.366512 -3.020363
2011-03-15 08:24:54 51°17.076 2°52.486 6.1472 3.163634 31.38862 -3.020363
2011-03-15 08:24:59 51°17.093 2°52.474 6.1061 3.160427 31.362048 -3.020363
2011-03-15 08:25:04 51°17.109 2°52.462 6.075 3.160014 31.373075 -3.020363
2011-03-15 08:25:09 51°17.126 2°52.449 6.0779 3.160014 31.373075 -3.020363
2011-03-15 08:25:14 51°17.143 2°52.438 6.0802 3.157427 31.370622 -3.020363
2011-03-15 08:25:18 51°17.156 2°52.428 6.0739 3.157738 31.377501 -3.020363
2011-03-15 08:25:24 51°17.177 2°52.413 6.0623 3.153289 31.336372 -3.020363
2011-03-15 08:25:29 51°17.193 2°52.401 6.0568 3.153807 31.351587 -3.020363
2011-03-15 08:25:34 51°17.21 2°52.389 6.0667 3.153393 31.365237 -3.020363
2011-03-15 08:25:39 51°17.227 2°52.377 6.0563 3.153393 31.365237 -3.020363
2011-03-15 08:25:44 51°17.244 2°52.365 6.0478 3.152773 31.376624 -3.020363
2011-03-15 08:25:49 51°17.261 2°52.353 6.0451 3.151428 31.37657 -3.020363
2011-03-15 08:25:54 51°17.277 2°52.341 6.048 3.149669 31.36327 -3.020363
2011-03-15 08:25:59 51°17.294 2°52.328 6.0618 3.149462 31.374021 -3.020363
2011-03-15 08:26:04 51°17.311 2°52.316 6.0566 3.151532 31.404662 -3.020363
2011-03-15 08:26:09 51°17.328 2°52.304 6.0745 3.151532 31.404662 -3.020363
2011-03-15 08:26:14 51°17.345 2°52.291 6.08 3.148738 31.380816 -3.020363
2011-03-15 08:26:19 51°17.362 2°52.279 6.0749 3.147393 31.374679 -3.020363
2011-03-15 08:26:24 51°17.378 2°52.266 6.0697 3.148118 31.386148 -3.020363
2011-03-15 08:26:29 51°17.395 2°52.254 6.0544 3.147394 31.381639 -3.020363
2011-03-15 08:26:34 51°17.412 2°52.241 6.0583 3.147394 31.382509 -3.020363
2011-03-15 08:26:39 51°17.428 2°52.228 6.0515 3.147394 31.382509 -3.020363
2011-03-15 08:26:44 51°17.445 2°52.215 6.0656 3.14698 31.374463 -3.020363
2011-03-15 08:26:49 51°17.462 2°52.202 6.0479 3.145221 31.351583 -3.020363
2011-03-15 08:26:54 51°17.478 2°52.19 6.0435 3.146152 31.361854 -3.020363
2011-03-15 08:26:59 51°17.495 2°52.177 6.032 3.144083 31.3399 -3.020363
2011-03-15 08:27:04 51°17.512 2°52.165 6.0613 3.144807 31.353973 -3.020363
2011-03-15 08:27:09 51°17.529 2°52.152 6.0289 3.144807 31.353973 -3.020363
2011-03-15 08:27:14 51°17.546 2°52.14 6.0257 3.14429 31.354353 -3.020363
2011-03-15 08:27:18 51°17.559 2°52.13 6.0207 3.141083 31.318098 -3.020363
2011-03-15 08:27:24 51°17.579 2°52.115 6.0179 3.143773 31.354733 -3.020363
2011-03-15 08:27:29 51°17.596 2°52.103 6.0115 3.142221 31.341085 -3.020363
2011-03-15 08:27:34 51°17.613 2°52.091 6.0006 3.143256 31.357724 -3.020363
2011-03-15 08:27:38 51°17.626 2°52.081 5.9878 3.143256 31.357724 -3.020363
2011-03-15 08:27:44 51°17.646 2°52.066 5.9886 3.142842 31.359247 -3.020363
2011-03-15 08:27:49 51°17.663 2°52.054 5.9747 3.143049 31.368497 -3.020363
2011-03-15 08:27:54 51°17.68 2°52.042 5.9554 3.14367 31.381451 -3.020363
2011-03-15 08:27:59 51°17.696 2°52.029 5.9424 3.14367 31.385809 -3.020363
2011-03-15 08:28:04 51°17.713 2°52.017 5.9412 3.144497 31.40542 -3.020363
2011-03-15 08:28:09 51°17.73 2°52.005 5.9477 3.144497 31.40542 -3.020363
2011-03-15 08:28:14 51°17.746 2°51.992 5.9317 3.146567 31.437897 -3.020363
2011-03-15 08:28:19 51°17.763 2°51.98 5.9281 3.14698 31.45034 -3.020363
2011-03-15 08:28:24 51°17.779 2°51.968 5.9332 3.146567 31.454508 -3.020363
2011-03-15 08:28:29 51°17.796 2°51.955 5.9167 3.14905 31.497744 -3.020363
2011-03-15 08:28:34 51°17.813 2°51.942 5.9019 3.14636 31.477606 -3.020363
2011-03-15 08:28:39 51°17.829 2°51.93 5.9036 3.14636 31.477606 -3.020363
2011-03-15 08:28:44 51°17.846 2°51.918 5.8979 3.149464 31.518112 -3.020363
2011-03-15 08:28:49 51°17.862 2°51.906 5.9062 3.150188 31.536668 -3.020363
2011-03-15 08:28:54 51°17.879 2°51.893 5.8977 3.150188 31.545454 -3.020363
2011-03-15 08:28:59 51°17.895 2°51.881 5.8859 3.153706 31.58884 -3.020363
2011-03-15 08:29:04 51°17.912 2°51.869 5.8943 3.153292 31.593055 -3.020363
2011-03-15 08:29:09 51°17.929 2°51.857 5.8785 3.153292 31.593055 -3.020363
2011-03-15 08:29:14 51°17.945 2°51.845 5.8773 3.153292 31.597459 -3.020363
2011-03-15 08:29:19 51°17.962 2°51.833 5.8874 3.15381 31.611127 -3.020363
2011-03-15 08:29:24 51°17.979 2°51.821 5.8834 3.15443 31.62154 -3.020363
2011-03-15 08:29:29 51°17.995 2°51.809 5.8881 3.152879 31.609612 -3.020363
2011-03-15 08:29:34 51°18.012 2°51.797 5.8849 3.153603 31.624705 -3.020363
2011-03-15 08:29:39 51°18.028 2°51.785 5.8777 3.153603 31.624705 -3.020363
2011-03-15 08:29:44 51°18.045 2°51.773 5.8799 3.152982 31.622227 -3.020363
2011-03-15 08:29:49 51°18.062 2°51.76 5.8787 3.152155 31.620981 -3.020363
2011-03-15 08:29:54 51°18.078 2°51.748 5.8783 3.151637 31.617886 -3.020363
2011-03-15 08:29:59 51°18.095 2°51.735 5.8836 3.149568 31.594913 -3.020363
2011-03-15 08:30:04 51°18.112 2°51.723 5.8736 3.151637 31.617003 -3.020363
2011-03-15 08:30:09 51°18.128 2°51.711 5.8864 3.151637 31.617003 -3.020363
2011-03-15 08:30:14 51°18.144 2°51.698 5.8874 3.151224 31.615056 -3.020363
2011-03-15 08:30:19 51°18.161 2°51.686 5.8815 3.150396 31.608514 -3.020363
2011-03-15 08:30:24 51°18.178 2°51.673 5.8831 3.149568 31.602853 -3.020363
2011-03-15 08:30:29 51°18.194 2°51.661 5.8751 3.149258 31.601171 -3.020363
2011-03-15 08:30:34 51°18.211 2°51.649 5.8741 3.148534 31.593129 -3.020363
2011-03-15 08:30:39 51°18.227 2°51.636 5.8793 3.148534 31.593129 -3.020363
2011-03-15 08:30:44 51°18.244 2°51.624 5.8807 3.146258 31.568737 -3.020363
2011-03-15 08:30:49 51°18.261 2°51.611 5.8647 3.146154 31.566707 -3.020363
2011-03-15 08:30:54 51°18.277 2°51.599 5.8753 3.143878 31.542317 -3.020363
2011-03-15 08:30:58 51°18.291 2°51.589 5.8799 3.143982 31.545227 -3.020363
2011-03-15 08:31:04 51°18.311 2°51.574 5.8678 3.142947 31.535502 -3.020363
2011-03-15 08:31:09 51°18.327 2°51.561 5.8715 3.142947 31.535502 -3.020363
2011-03-15 08:31:14 51°18.344 2°51.549 5.8645 3.141602 31.52321 -3.020363
2011-03-15 08:31:18 51°18.357 2°51.539 5.8721 3.141602 31.52145 -3.020363
2011-03-15 08:31:24 51°18.377 2°51.525 5.8712 3.139326 31.49882 -3.020363
2011-03-15 08:31:29 51°18.394 2°51.512 5.8695 3.139223 31.497671 -3.020363
2011-03-15 08:31:34 51°18.411 2°51.5 5.874 3.138395 31.491121 -3.020363
2011-03-15 08:31:39 51°18.427 2°51.488 5.8824 3.138395 31.491121 -3.020363
2011-03-15 08:31:44 51°18.444 2°51.476 5.8766 3.140671 31.519034 -3.020363
2011-03-15 08:31:49 51°18.46 2°51.463 5.8664 3.140464 31.519378 -3.020363
2011-03-15 08:31:54 51°18.477 2°51.451 5.8693 3.139223 31.507351 -3.020363
2011-03-15 08:31:59 51°18.494 2°51.439 5.8704 3.141913 31.536345 -3.020363
2011-03-15 08:32:04 51°18.511 2°51.427 5.8625 3.141706 31.532285 -3.020363
2011-03-15 08:32:09 51°18.528 2°51.414 5.8646 3.141706 31.532285 -3.020363
2011-03-15 08:32:14 51°18.544 2°51.402 5.8645 3.141085 31.52363 -3.020363
2011-03-15 08:32:19 51°18.561 2°51.39 5.8712 3.142844 31.544044 -3.020363
2011-03-15 08:32:24 51°18.577 2°51.377 5.8654 3.141189 31.529183 -3.020363
2011-03-15 08:32:29 51°18.594 2°51.365 5.8669 3.14212 31.540406 -3.020363
2011-03-15 08:32:34 51°18.611 2°51.352 5.8654 3.144085 31.564887 -3.020363
2011-03-15 08:32:39 51°18.627 2°51.34 5.8689 3.144085 31.564887 -3.020363
2011-03-15 08:32:44 51°18.644 2°51.327 5.8659 3.145637 31.583894 -3.020363
2011-03-15 08:32:49 51°18.661 2°51.315 5.8597 3.143672 31.562936 -3.020363
2011-03-15 08:32:54 51°18.678 2°51.302 5.8623 3.144189 31.570447 -3.020363
2011-03-15 08:32:59 51°18.695 2°51.29 5.8694 3.142844 31.555504 -3.020363
2011-03-15 08:33:04 51°18.711 2°51.277 5.8637 3.14243 31.551788 -3.020363
2011-03-15 08:33:09 51°18.728 2°51.265 5.8582 3.14243 31.551788 -3.020363
2011-03-15 08:33:14 51°18.745 2°51.253 5.8586 3.143154 31.558952 -3.020363
2011-03-15 08:33:19 51°18.762 2°51.24 5.8625 3.14243 31.550906 -3.020363
2011-03-15 08:33:24 51°18.779 2°51.228 5.861 3.141396 31.540293 -3.020363
2011-03-15 08:33:29 51°18.796 2°51.216 5.8679 3.141085 31.539489 -3.020363
2011-03-15 08:33:34 51°18.813 2°51.204 5.8583 3.139844 31.525696 -3.020363
2011-03-15 08:33:39 51°18.83 2°51.192 5.8627 3.139844 31.525696 -3.020363
2011-03-15 08:33:44 51°18.847 2°51.18 5.8635 3.138809 31.515083 -3.020363
2011-03-15 08:33:49 51°18.864 2°51.167 5.8711 3.137775 31.50535 -3.020363
2011-03-15 08:33:54 51°18.88 2°51.155 5.8612 3.138189 31.510829 -3.020363
2011-03-15 08:33:58 51°18.894 2°51.145 5.8606 3.138292 31.511097 -3.020363
2011-03-15 08:34:04 51°18.914 2°51.13 5.8651 3.137878 31.50738 -3.020363
2011-03-15 08:34:09 51°18.931 2°51.117 5.8679 3.137878 31.50738 -3.020363
2011-03-15 08:34:14 51°18.947 2°51.105 5.8655 3.13674 31.494737 -3.020363
2011-03-15 08:34:18 51°18.961 2°51.095 5.8766 3.134361 31.469182 -3.020363
2011-03-15 08:34:24 51°18.981 2°51.08 5.8639 3.135602 31.482094 -3.020363
2011-03-15 08:34:29 51°18.998 2°51.068 5.862 3.13643 31.492169 -3.020363
2011-03-15 08:34:34 51°19.015 2°51.055 5.868 3.137258 31.502245 -3.020363
2011-03-15 08:34:39 51°19.032 2°51.043 5.8633 3.137258 31.502245 -3.020363
2011-03-15 08:34:44 51°19.049 2°51.03 5.8699 3.13643 31.491288 -3.020363
2011-03-15 08:34:49 51°19.066 2°51.018 5.8659 3.136119 31.48696 -3.020363
2011-03-15 08:34:54 51°19.083 2°51.005 5.8651 3.136533 31.489797 -3.020363
2011-03-15 08:34:59 51°19.099 2°50.992 5.8625 3.135292 31.477766 -3.020363
2011-03-15 08:35:04 51°19.116 2°50.98 5.8558 3.13643 31.491288 -3.020363
2011-03-15 08:35:09 51°19.133 2°50.967 5.8642 3.13643 31.491288 -3.020363
2011-03-15 08:35:14 51°19.15 2°50.954 5.8606 3.134982 31.475198 -3.020363
2011-03-15 08:35:19 51°19.167 2°50.941 5.8642 3.135602 31.482094 -3.020363
2011-03-15 08:35:24 51°19.183 2°50.928 5.8633 3.135395 31.479795 -3.020363
2011-03-15 08:35:29 51°19.2 2°50.915 5.8567 3.135706 31.485003 -3.020363
2011-03-15 08:35:34 51°19.217 2°50.902 5.8629 3.134568 31.475 -3.020363
2011-03-15 08:35:39 51°19.233 2°50.89 5.8588 3.134568 31.475 -3.020363
2011-03-15 08:35:44 51°19.25 2°50.877 5.854 3.13374 31.467564 -3.020363
2011-03-15 08:35:49 51°19.267 2°50.864 5.8508 3.133326 31.461207 -3.020363
2011-03-15 08:35:54 51°19.284 2°50.852 5.856 3.135602 31.485614 -3.020363
2011-03-15 08:35:59 51°19.301 2°50.839 5.864 3.135499 31.485345 -3.020363
2011-03-15 08:36:04 51°19.318 2°50.826 5.8494 3.133533 31.465265 -3.020363
2011-03-15 08:36:09 51°19.335 2°50.813 5.8479 3.133533 31.465265 -3.020363
2011-03-15 08:36:14 51°19.352 2°50.8 5.8482 3.134671 31.47967 -3.020363
2011-03-15 08:36:19 51°19.368 2°50.787 5.847 3.133016 31.463917 -3.020363
2011-03-15 08:36:24 51°19.385 2°50.774 5.8494 3.131878 31.452152 -3.020363
2011-03-15 08:36:29 51°19.402 2°50.761 5.8432 3.132499 31.459929 -3.020363
2011-03-15 08:36:34 51°19.419 2°50.748 5.8493 3.133533 31.472305 -3.020363
2011-03-15 08:36:39 51°19.436 2°50.735 5.8466 3.133533 31.472305 -3.020363
2011-03-15 08:36:44 51°19.453 2°50.722 5.8482 3.132188 31.460879 -3.020363
2011-03-15 08:36:49 51°19.47 2°50.709 5.8469 3.133637 31.479617 -3.020363
2011-03-15 08:36:54 51°19.487 2°50.697 5.8513 3.13374 31.480767 -3.020363
2011-03-15 08:36:59 51°19.503 2°50.684 5.8598 3.13312 31.473868 -3.020363
2011-03-15 08:37:04 51°19.52 2°50.671 5.8595 3.13374 31.481648 -3.020363
2011-03-15 08:37:09 51°19.537 2°50.658 5.852 3.13374 31.481648 -3.020363
2011-03-15 08:37:14 51°19.554 2°50.646 5.8475 3.133326 31.476168 -3.020363
2011-03-15 08:37:19 51°19.571 2°50.633 5.8497 3.132706 31.471029 -3.020363
2011-03-15 08:37:24 51°19.588 2°50.62 5.8505 3.132395 31.467579 -3.020363
2011-03-15 08:37:29 51°19.605 2°50.607 5.8507 3.131982 31.461219 -3.020363
2011-03-15 08:37:34 51°19.622 2°50.594 5.8497 3.133326 31.473526 -3.020363
2011-03-15 08:37:39 51°19.639 2°50.581 5.8523 3.133326 31.473526 -3.020363
2011-03-15 08:37:44 51°19.656 2°50.568 5.8533 3.13074 31.443904 -3.020363
2011-03-15 08:37:49 51°19.672 2°50.555 5.8524 3.128464 31.420371 -3.020363
2011-03-15 08:37:54 51°19.689 2°50.543 5.8565 3.128775 31.425577 -3.020363
2011-03-15 08:37:59 51°19.706 2°50.53 5.8536 3.128568 31.425036 -3.020363
2011-03-15 08:38:04 51°19.723 2°50.517 5.8545 3.126706 31.404343 -3.020363
2011-03-15 08:38:09 51°19.74 2°50.504 5.8519 3.126706 31.404343 -3.020363
2011-03-15 08:38:14 51°19.757 2°50.49 5.8504 3.129913 31.439983 -3.020363
2011-03-15 08:38:18 51°19.77 2°50.48 5.8564 3.130016 31.441133 -3.020363
2011-03-15 08:38:24 51°19.79 2°50.464 5.8524 3.130223 31.442553 -3.020363
2011-03-15 08:38:29 51°19.807 2°50.45 5.8585 3.129499 31.433625 -3.020363
2011-03-15 08:38:34 51°19.824 2°50.437 5.8564 3.129395 31.433355 -3.020363
2011-03-15 08:38:39 51°19.841 2°50.424 5.8539 3.129395 31.433355 -3.020363
2011-03-15 08:38:44 51°19.857 2°50.411 5.8623 3.127947 31.418138 -3.020363
2011-03-15 08:38:49 51°19.874 2°50.397 5.8623 3.127016 31.407791 -3.020363
2011-03-15 08:38:54 51°19.89 2°50.384 5.86 3.126809 31.404614 -3.020363
2011-03-15 08:38:59 51°19.907 2°50.371 5.8612 3.126912 31.404885 -3.020363
2011-03-15 08:39:04 51°19.923 2°50.357 5.861 3.126188 31.396838 -3.020363
2011-03-15 08:39:09 51°19.94 2°50.343 5.8688 3.126188 31.396838 -3.020363
2011-03-15 08:39:14 51°19.957 2°50.33 5.8629 3.126499 31.401165 -3.020363
2011-03-15 08:39:19 51°19.974 2°50.318 5.8621 3.125981 31.393661 -3.020363
2011-03-15 08:39:24 51°19.991 2°50.305 5.8615 3.126809 31.400222 -3.020363
2011-03-15 08:39:29 51°20.008 2°50.293 5.8633 3.127119 31.40367 -3.020363
2011-03-15 08:39:34 51°20.024 2°50.28 5.8727 3.128464 31.418613 -3.020363
2011-03-15 08:39:39 51°20.041 2°50.268 5.869 3.128464 31.418613 -3.020363
2011-03-15 08:39:44 51°20.058 2°50.256 5.8667 3.128257 31.415436 -3.020363
2011-03-15 08:39:49 51°20.076 2°50.247 5.864 3.127947 31.41023 -3.020363
2011-03-15 08:39:54 51°20.094 2°50.24 5.8626 3.13043 31.438696 -3.020363
2011-03-15 08:39:59 51°20.113 2°50.234 5.8574 3.132809 31.465137 -3.020363
2011-03-15 08:40:04 51°20.131 2°50.23 5.8611 3.134257 31.478592 -3.020363
2011-03-15 08:40:09 51°20.15 2°50.226 5.8554 3.134257 31.478592 -3.020363
2011-03-15 08:40:14 51°20.169 2°50.223 5.8687 3.135602 31.491777 -3.020363
2011-03-15 08:40:19 51°20.188 2°50.221 5.8594 3.137878 31.517072 -3.020363
2011-03-15 08:40:24 51°20.207 2°50.22 5.8511 3.140465 31.544936 -3.020363
2011-03-15 08:40:29 51°20.225 2°50.218 5.8506 3.143051 31.574569 -3.020363
2011-03-15 08:40:34 51°20.244 2°50.217 5.8615 3.145948 31.609426 -3.020363
2011-03-15 08:40:39 51°20.263 2°50.216 5.8515 3.145948 31.609426 -3.020363
2011-03-15 08:40:44 51°20.282 2°50.215 5.8525 3.148017 31.633319 -3.020363
2011-03-15 08:40:49 51°20.302 2°50.214 5.8572 3.149155 31.64509 -3.020363
2011-03-15 08:40:54 51°20.321 2°50.214 5.856 3.149776 31.65465 -3.020363
2011-03-15 08:40:59 51°20.339 2°50.214 5.8608 3.149776 31.659077 -3.020363
2011-03-15 08:41:04 51°20.358 2°50.213 5.8433 3.149569 31.657661 -3.020363
2011-03-15 08:41:09 51°20.377 2°50.212 5.8464 3.149569 31.657661 -3.020363
2011-03-15 08:41:14 51°20.396 2°50.211 5.843 3.149362 31.654474 -3.020363
2011-03-15 08:41:19 51°20.415 2°50.211 5.8428 3.149362 31.655359 -3.020363
2011-03-15 08:41:24 51°20.434 2°50.21 5.8453 3.149672 31.659697 -3.020363
2011-03-15 08:41:29 51°20.453 2°50.208 5.846 3.150293 31.665717 -3.020363
2011-03-15 08:41:34 51°20.472 2°50.208 5.8483 3.150707 31.671207 -3.020363
2011-03-15 08:41:39 51°20.491 2°50.207 5.8347 3.150707 31.671207 -3.020363
2011-03-15 08:41:44 51°20.51 2°50.206 5.8369 3.150604 31.675373 -3.020363
2011-03-15 08:41:49 51°20.529 2°50.205 5.8316 3.150604 31.678032 -3.020363
2011-03-15 08:41:54 51°20.548 2°50.205 5.8294 3.151121 31.684675 -3.020363
2011-03-15 08:41:58 51°20.563 2°50.204 5.821 3.151948 31.693885 -3.020363
2011-03-15 08:42:04 51°20.586 2°50.203 5.8252 3.152983 31.707174 -3.020363
2011-03-15 08:42:09 51°20.605 2°50.201 5.8215 3.152983 31.707174 -3.020363
2011-03-15 08:42:14 51°20.624 2°50.2 5.8226 3.154018 31.720464 -3.020363
2011-03-15 08:42:19 51°20.643 2°50.199 5.8305 3.154949 31.734382 -3.020363
2011-03-15 08:42:24 51°20.662 2°50.198 5.826 3.155673 31.744222 -3.020363
2011-03-15 08:42:29 51°20.681 2°50.198 5.8234 3.156294 31.756467 -3.020363
2011-03-15 08:42:34 51°20.7 2°50.197 5.8191 3.156501 31.762328 -3.020363
2011-03-15 08:42:39 51°20.719 2°50.196 5.8148 3.156501 31.762328 -3.020363
2011-03-15 08:42:44 51°20.738 2°50.194 5.81 3.156708 31.764633 -3.020363
2011-03-15 08:42:49 51°20.757 2°50.193 5.8151 3.156708 31.766412 -3.020363
2011-03-15 08:42:54 51°20.776 2°50.193 5.8205 3.156604 31.76526 -3.020363
2011-03-15 08:42:59 51°20.795 2°50.193 5.8068 3.15619 31.76154 -3.020363
2011-03-15 08:43:04 51°20.814 2°50.192 5.8122 3.155777 31.75693 -3.020363
2011-03-15 08:43:09 51°20.833 2°50.192 5.8124 3.155777 31.75693 -3.020363
2011-03-15 08:43:14 51°20.852 2°50.192 5.8036 3.155052 31.752421 -3.020363
2011-03-15 08:43:19 51°20.871 2°50.192 5.8058 3.154328 31.747022 -3.020363
2011-03-15 08:43:24 51°20.891 2°50.192 5.8183 3.153604 31.739844 -3.020363
2011-03-15 08:43:29 51°20.91 2°50.192 5.8104 3.152776 31.730624 -3.020363
2011-03-15 08:43:34 51°20.929 2°50.192 5.8037 3.151845 31.723807 -3.020363
2011-03-15 08:43:39 51°20.948 2°50.191 5.806 3.151845 31.723807 -3.020363
2011-03-15 08:43:44 51°20.967 2°50.191 5.8049 3.151018 31.714587 -3.020363
2011-03-15 08:43:49 51°20.986 2°50.191 5.8013 3.150087 31.705104 -3.020363
2011-03-15 08:43:54 51°21.006 2°50.191 5.7919 3.148845 31.693939 -3.020363
2011-03-15 08:43:58 51°21.021 2°50.19 5.7967 3.147914 31.68268 -3.020363
2011-03-15 08:44:04 51°21.043 2°50.19 5.7937 3.146776 31.670004 -3.020363
2011-03-15 08:44:09 51°21.062 2°50.189 5.7891 3.146776 31.670004 -3.020363
2011-03-15 08:44:14 51°21.081 2°50.188 5.7862 3.145121 31.655115 -3.020363
2011-03-15 08:44:18 51°21.096 2°50.188 5.7911 3.143879 31.643061 -3.020363
2011-03-15 08:44:24 51°21.119 2°50.187 5.7827 3.142534 31.629854 -3.020363
2011-03-15 08:44:29 51°21.138 2°50.187 5.7848 3.14119 31.618418 -3.020363
2011-03-15 08:44:34 51°21.157 2°50.186 5.7788 3.139948 31.607248 -3.020363
2011-03-15 08:44:39 51°21.176 2°50.186 5.78 3.139948 31.607248 -3.020363
2011-03-15 08:44:44 51°21.195 2°50.183 5.7852 3.13881 31.596343 -3.020363
2011-03-15 08:44:49 51°21.214 2°50.18 5.78 3.137776 31.587476 -3.020363
2011-03-15 08:44:54 51°21.233 2°50.176 5.7758 3.137155 31.583217 -3.020363
2011-03-15 08:44:59 51°21.251 2°50.17 5.778 3.136534 31.578073 -3.020363
2011-03-15 08:45:04 51°21.27 2°50.163 5.778 3.13581 31.573546 -3.020363
2011-03-15 08:45:09 51°21.288 2°50.155 5.7747 3.13581 31.573546 -3.020363
2011-03-15 08:45:14 51°21.306 2°50.147 5.774 3.135293 31.570439 -3.020363
2011-03-15 08:45:18 51°21.32 2°50.139 5.7722 3.134776 31.566446 -3.020363
2011-03-15 08:45:24 51°21.341 2°50.127 5.7831 3.134465 31.563873 -3.020363
2011-03-15 08:45:29 51°21.358 2°50.115 5.7846 3.134258 31.564223 -3.020363
2011-03-15 08:45:34 51°21.375 2°50.103 5.7787 3.134258 31.565994 -3.020363
2011-03-15 08:45:39 51°21.392 2°50.091 5.7839 3.134258 31.565994 -3.020363
2011-03-15 08:45:44 51°21.409 2°50.077 5.7763 3.134465 31.569185 -3.020363
2011-03-15 08:45:49 51°21.426 2°50.063 5.7742 3.134983 31.575836 -3.020363
2011-03-15 08:45:54 51°21.441 2°50.049 5.7781 3.1355 31.582487 -3.020363
2011-03-15 08:45:59 51°21.458 2°50.034 5.7756 3.136121 31.587633 -3.020363
2011-03-15 08:46:04 51°21.473 2°50.019 5.7777 3.136845 31.593932 -3.020363
2011-03-15 08:46:09 51°21.489 2°50.003 5.774 3.136845 31.593932 -3.020363
2011-03-15 08:46:14 51°21.505 2°49.988 5.7791 3.137259 31.59943 -3.020363
2011-03-15 08:46:19 51°21.52 2°49.971 5.7761 3.137569 31.602889 -3.020363
2011-03-15 08:46:24 51°21.536 2°49.955 5.78 3.137569 31.603776 -3.020363
2011-03-15 08:46:29 51°21.551 2°49.938 5.7805 3.137569 31.604662 -3.020363
2011-03-15 08:46:34 51°21.567 2°49.921 5.7783 3.137569 31.603776 -3.020363
2011-03-15 08:46:38 51°21.578 2°49.907 5.7761 3.137569 31.603776 -3.020363
2011-03-15 08:46:44 51°21.596 2°49.886 5.7721 3.137672 31.605816 -3.020363
2011-03-15 08:46:49 51°21.611 2°49.869 5.7768 3.137672 31.606702 -3.020363
2011-03-15 08:46:54 51°21.626 2°49.852 5.7789 3.137879 31.609009 -3.020363
2011-03-15 08:46:59 51°21.641 2°49.835 5.7803 3.137983 31.609275 -3.020363
2011-03-15 08:47:04 51°21.657 2°49.818 5.7669 3.138086 31.608655 -3.020363
2011-03-15 08:47:09 51°21.672 2°49.802 5.7703 3.138086 31.608655 -3.020363
2011-03-15 08:47:14 51°21.687 2°49.785 5.7711 3.13819 31.609808 -3.020363
2011-03-15 08:47:19 51°21.703 2°49.768 5.7767 3.138293 31.612735 -3.020363
2011-03-15 08:47:24 51°21.718 2°49.751 5.7892 3.1385 31.614154 -3.020363
2011-03-15 08:47:29 51°21.733 2°49.734 5.8026 3.138914 31.616106 -3.020363
2011-03-15 08:47:34 51°21.749 2°49.717 5.8037 3.139534 31.617704 -3.020363
2011-03-15 08:47:39 51°21.764 2°49.7 5.8001 3.139534 31.617704 -3.020363
2011-03-15 08:47:44 51°21.779 2°49.683 5.8078 3.140362 31.626041 -3.020363
2011-03-15 08:47:49 51°21.794 2°49.665 5.8199 3.14119 31.635264 -3.020363
2011-03-15 08:47:54 51°21.808 2°49.647 5.8152 3.14181 31.641295 -3.020363
2011-03-15 08:47:59 51°21.822 2°49.628 5.8284 3.143673 31.657611 -3.020363
2011-03-15 08:48:04 51°21.837 2°49.609 5.845 3.146983 31.687401 -3.020363
2011-03-15 08:48:09 51°21.85 2°49.589 5.8161 3.146983 31.687401 -3.020363
2011-03-15 08:48:14 51°21.864 2°49.57 5.8316 3.1475 31.687836 -3.020363
2011-03-15 08:48:19 51°21.877 2°49.549 5.8324 3.146362 31.671606 -3.020363
2011-03-15 08:48:24 51°21.891 2°49.529 5.8233 3.145328 31.655646 -3.020363
2011-03-15 08:48:29 51°21.904 2°49.508 5.8224 3.144707 31.644299 -3.020363
2011-03-15 08:48:34 51°21.917 2°49.488 5.8278 3.144603 31.636058 -3.020363
2011-03-15 08:48:38 51°21.927 2°49.471 5.8306 3.144603 31.636058 -3.020363
2011-03-15 08:48:44 51°21.943 2°49.447 5.8268 3.145121 31.638272 -3.020363
2011-03-15 08:48:49 51°21.956 2°49.426 5.8407 3.146052 31.649524 -3.020363
2011-03-15 08:48:54 51°21.969 2°49.406 5.8441 3.146672 31.655549 -3.020363
2011-03-15 08:48:58 51°21.98 2°49.389 5.8362 3.146983 31.657231 -3.020363
2011-03-15 08:49:04 51°21.995 2°49.364 5.8593 3.147397 31.660952 -3.020363
2011-03-15 08:49:09 51°22.009 2°49.344 5.8385 3.147397 31.660952 -3.020363
2011-03-15 08:49:14 51°22.022 2°49.323 5.8425 3.148017 31.664316 -3.020363
2011-03-15 08:49:19 51°22.035 2°49.303 5.8461 3.148845 31.670869 -3.020363
2011-03-15 08:49:24 51°22.048 2°49.282 5.8413 3.149776 31.678573 -3.020363
2011-03-15 08:49:29 51°22.061 2°49.261 5.8655 3.150293 31.682557 -3.020363
2011-03-15 08:49:34 51°22.074 2°49.24 5.8679 3.151224 31.691147 -3.020363
2011-03-15 08:49:39 51°22.086 2°49.219 5.843 3.151224 31.691147 -3.020363
2011-03-15 08:49:44 51°22.099 2°49.198 5.8454 3.153087 31.709213 -3.020363
2011-03-15 08:49:49 51°22.112 2°49.177 5.844 3.154225 31.720992 -3.020363
2011-03-15 08:49:54 51°22.126 2°49.157 5.8527 3.155673 31.735338 -3.020363
2011-03-15 08:49:58 51°22.136 2°49.14 5.8604 3.156811 31.747117 -3.020363
2011-03-15 08:50:04 51°22.152 2°49.116 5.8542 3.157328 31.747545 -3.020363
2011-03-15 08:50:09 51°22.165 2°49.095 5.8728 3.157328 31.747545 -3.020363
2011-03-15 08:50:14 51°22.178 2°49.073 5.8585 3.157639 31.748334 -3.020363
2011-03-15 08:50:19 51°22.19 2°49.052 5.8789 3.15857 31.761362 -3.020363
2011-03-15 08:50:24 51°22.202 2°49.03 5.8746 3.160535 31.782353 -3.020363
2011-03-15 08:50:29 51°22.214 2°49.008 5.8878 3.160328 31.777382 -3.020363
2011-03-15 08:50:34 51°22.226 2°48.986 5.8812 3.162191 31.794552 -3.020363
2011-03-15 08:50:39 51°22.237 2°48.963 5.8859 3.162191 31.794552 -3.020363
2011-03-15 08:50:44 51°22.25 2°48.941 5.8745 3.163329 31.80277 -3.020363
2011-03-15 08:50:49 51°22.261 2°48.918 5.9064 3.164881 31.819151 -3.020363
2011-03-15 08:50:54 51°22.273 2°48.896 5.8752 3.166743 31.838097 -3.020363
2011-03-15 08:50:59 51°22.285 2°48.873 5.8796 3.168502 31.854109 -3.020363
2011-03-15 08:51:04 51°22.297 2°48.851 5.9136 3.169536 31.861169 -3.020363
2011-03-15 08:51:09 51°22.308 2°48.828 5.8984 3.169536 31.861169 -3.020363
2011-03-15 08:51:14 51°22.318 2°48.805 5.8954 3.170985 31.873723 -3.020363
2011-03-15 08:51:19 51°22.328 2°48.781 5.8984 3.171812 31.882042 -3.020363
2011-03-15 08:51:24 51°22.338 2°48.756 5.8864 3.172743 31.888838 -3.020363
2011-03-15 08:51:29 51°22.347 2°48.732 5.8983 3.173364 31.893963 -3.020363
2011-03-15 08:51:34 51°22.356 2°48.707 5.8904 3.174192 31.904956 -3.020363
2011-03-15 08:51:39 51°22.365 2°48.683 5.9048 3.174192 31.904956 -3.020363
2011-03-15 08:51:44 51°22.374 2°48.657 5.9114 3.174606 31.907777 -3.020363
2011-03-15 08:51:49 51°22.383 2°48.632 5.9179 3.175537 31.912787 -3.020363
2011-03-15 08:51:54 51°22.392 2°48.607 5.9372 3.175951 31.915608 -3.020363
2011-03-15 08:51:58 51°22.4 2°48.588 5.9703 3.177503 31.931982 -3.020363
2011-03-15 08:52:04 51°22.411 2°48.558 5.9404 3.177606 31.932241 -3.020363
2011-03-15 08:52:09 51°22.42 2°48.533 5.9469 3.177606 31.932241 -3.020363
2011-03-15 08:52:14 51°22.429 2°48.509 5.9507 3.178951 31.946313 -3.020363
2011-03-15 08:52:18 51°22.436 2°48.49 5.9514 3.180193 31.957449 -3.020363
2011-03-15 08:52:24 51°22.447 2°48.461 5.9491 3.182365 31.974477 -3.020363
2011-03-15 08:52:29 51°22.456 2°48.436 5.968 3.18609 32.006082 -3.020363
2011-03-15 08:52:34 51°22.465 2°48.412 5.9597 3.191677 32.060178 -3.020363
2011-03-15 08:52:39 51°22.474 2°48.387 5.9683 3.191677 32.060178 -3.020363
2011-03-15 08:52:44 51°22.483 2°48.363 5.9477 3.197367 32.119001 -3.020363
2011-03-15 08:52:49 51°22.492 2°48.339 5.9813 3.20223 32.167717 -3.020363
2011-03-15 08:52:54 51°22.502 2°48.315 5.9598 3.207404 32.221683 -3.020363
2011-03-15 08:52:59 51°22.511 2°48.291 5.9579 3.210611 32.251974 -3.020363
2011-03-15 08:53:04 51°22.521 2°48.267 5.9598 3.213198 32.276255 -3.020363
2011-03-15 08:53:09 51°22.531 2°48.243 5.9602 3.213198 32.276255 -3.020363
2011-03-15 08:53:14 51°22.54 2°48.218 5.9537 3.215371 32.296828 -3.020363
2011-03-15 08:53:18 51°22.548 2°48.199 5.9525 3.217026 32.314347 -3.020363
2011-03-15 08:53:24 51°22.559 2°48.171 5.9723 3.217957 32.324709 -3.020363
2011-03-15 08:53:29 51°22.569 2°48.147 5.9621 3.219096 32.33557 -3.020363
2011-03-15 08:53:34 51°22.578 2°48.123 5.9521 3.219613 32.342229 -3.020363
2011-03-15 08:53:39 51°22.588 2°48.099 5.9481 3.219613 32.342229 -3.020363
2011-03-15 08:53:44 51°22.597 2°48.075 5.9545 3.22013 32.347084 -3.020363
2011-03-15 08:53:49 51°22.606 2°48.051 5.9577 3.221061 32.356544 -3.020363
2011-03-15 08:53:54 51°22.615 2°48.026 5.9474 3.222303 32.37307 -3.020363
2011-03-15 08:53:59 51°22.624 2°48.002 5.9417 3.223648 32.388041 -3.020363
2011-03-15 08:54:04 51°22.634 2°47.978 5.9444 3.224062 32.391744 -3.020363
2011-03-15 08:54:09 51°22.643 2°47.954 5.9414 3.224062 32.391744 -3.020363
2011-03-15 08:54:14 51°22.653 2°47.93 5.937 3.22458 32.400214 -3.020363
2011-03-15 08:54:19 51°22.662 2°47.905 5.9469 3.22489 32.405477 -3.020363
2011-03-15 08:54:24 51°22.671 2°47.881 5.9336 3.223855 32.394862 -3.020363
2011-03-15 08:54:29 51°22.68 2°47.857 5.9341 3.223338 32.390007 -3.020363
2011-03-15 08:54:34 51°22.689 2°47.833 5.9398 3.222407 32.382351 -3.020363
2011-03-15 08:54:39 51°22.698 2°47.808 5.9323 3.222407 32.382351 -3.020363
2011-03-15 08:54:44 51°22.707 2°47.784 5.9363 3.221165 32.370335 -3.020363
2011-03-15 08:54:49 51°22.716 2°47.759 5.9355 3.220337 32.363829 -3.020363
2011-03-15 08:54:54 51°22.725 2°47.736 5.9344 3.219199 32.352964 -3.020363
2011-03-15 08:54:59 51°22.734 2°47.711 5.9279 3.218371 32.345554 -3.020363
2011-03-15 08:55:04 51°22.744 2°47.687 5.9223 3.217544 32.337241 -3.020363
2011-03-15 08:55:09 51°22.753 2°47.662 5.9228 3.217544 32.337241 -3.020363
2011-03-15 08:55:14 51°22.763 2°47.638 5.9171 3.217026 32.332384 -3.020363
2011-03-15 08:55:19 51°22.772 2°47.613 5.9242 3.216612 32.32958 -3.020363
2011-03-15 08:55:24 51°22.781 2°47.589 5.9119 3.215992 32.322669 -3.020363
2011-03-15 08:55:29 51°22.789 2°47.564 5.9082 3.215164 32.314355 -3.020363
2011-03-15 08:55:34 51°22.797 2°47.539 5.907 3.214233 32.305792 -3.020363
2011-03-15 08:55:39 51°22.806 2°47.514 5.9067 3.214233 32.305792 -3.020363
2011-03-15 08:55:44 51°22.813 2°47.489 5.905 3.214129 32.307345 -3.020363
2011-03-15 08:55:49 51°22.821 2°47.464 5.9068 3.21237 32.290466 -3.020363
2011-03-15 08:55:54 51°22.829 2°47.438 5.9031 3.211646 32.285105 -3.020363
2011-03-15 08:55:59 51°22.837 2°47.413 5.9003 3.210094 32.269627 -3.020363
2011-03-15 08:56:04 51°22.845 2°47.388 5.8967 3.208852 32.261207 -3.020363
2011-03-15 08:56:09 51°22.853 2°47.364 5.8965 3.208852 32.261207 -3.020363
2011-03-15 08:56:14 51°22.862 2°47.339 5.8924 3.2073 32.246627 -3.020363
2011-03-15 08:56:18 51°22.868 2°47.318 5.8962 3.206783 32.241766 -3.020363
2011-03-15 08:56:24 51°22.878 2°47.288 5.8967 3.206266 32.238707 -3.020363
2011-03-15 08:56:29 51°22.886 2°47.263 5.8869 3.206266 32.239607 -3.020363
2011-03-15 08:56:34 51°22.894 2°47.238 5.8872 3.206162 32.242057 -3.020363
2011-03-15 08:56:39 51°22.901 2°47.212 5.886 3.206162 32.242057 -3.020363
2011-03-15 08:56:44 51°22.909 2°47.187 5.8813 3.206473 32.247316 -3.020363
2011-03-15 08:56:49 51°22.917 2°47.162 5.8773 3.206162 32.246562 -3.020363
2011-03-15 08:56:54 51°22.925 2°47.137 5.8807 3.205852 32.244005 -3.020363
2011-03-15 08:56:59 51°22.932 2°47.112 5.8804 3.205128 32.236838 -3.020363
2011-03-15 08:57:04 51°22.941 2°47.087 5.8824 3.204714 32.23583 -3.020363
2011-03-15 08:57:09 51°22.949 2°47.062 5.8796 3.204714 32.23583 -3.020363
2011-03-15 08:57:14 51°22.957 2°47.037 5.8864 3.205542 32.246854 -3.020363
2011-03-15 08:57:19 51°22.965 2°47.012 5.8833 3.205542 32.249558 -3.020363
2011-03-15 08:57:24 51°22.973 2°46.986 5.889 3.205542 32.252263 -3.020363
2011-03-15 08:57:29 51°22.981 2°46.961 5.8882 3.206266 32.262137 -3.020363
2011-03-15 08:57:34 51°22.989 2°46.936 5.8931 3.205956 32.25958 -3.020363
2011-03-15 08:57:38 51°22.995 2°46.916 5.894 3.205956 32.25958 -3.020363
2011-03-15 08:57:44 51°23.005 2°46.886 5.8955 3.206576 32.266499 -3.020363
2011-03-15 08:57:49 51°23.013 2°46.86 5.902 3.207508 32.276877 -3.020363
2011-03-15 08:57:54 51°23.021 2°46.835 5.9075 3.207715 32.278281 -3.020363
2011-03-15 08:57:58 51°23.028 2°46.815 5.9078 3.209267 32.293774 -3.020363
2011-03-15 08:58:04 51°23.038 2°46.786 5.9055 3.210922 32.31042 -3.020363
2011-03-15 08:58:09 51°23.047 2°46.762 5.9092 3.210922 32.31042 -3.020363
2011-03-15 08:58:14 51°23.056 2°46.737 5.9039 3.212991 32.331679 -3.020363
2011-03-15 08:58:19 51°23.064 2°46.713 5.9057 3.213095 32.331025 -3.020363
2011-03-15 08:58:24 51°23.074 2°46.689 5.9004 3.21713 32.372386 -3.020363
2011-03-15 08:58:29 51°23.082 2°46.664 5.8999 3.219613 32.396447 -3.020363
2011-03-15 08:58:34 51°23.092 2°46.64 5.9066 3.221993 32.420258 -3.020363
2011-03-15 08:58:39 51°23.1 2°46.616 5.9011 3.221993 32.420258 -3.020363
2011-03-15 08:58:44 51°23.11 2°46.592 5.9081 3.222511 32.424213 -3.020363
2011-03-15 08:58:49 51°23.118 2°46.567 5.9074 3.223028 32.42998 -3.020363
2011-03-15 08:58:54 51°23.127 2°46.542 5.9102 3.223235 32.433193 -3.020363
2011-03-15 08:58:58 51°23.135 2°46.523 5.9181 3.222407 32.423965 -3.020363
2011-03-15 08:59:04 51°23.145 2°46.493 5.9223 3.221786 32.418857 -3.020363
2011-03-15 08:59:09 51°23.154 2°46.468 5.9226 3.221786 32.418857 -3.020363
2011-03-15 08:59:14 51°23.163 2°46.443 5.9253 3.221786 32.418857 -3.020363
2011-03-15 08:59:19 51°23.172 2°46.419 5.9257 3.222407 32.423965 -3.020363
2011-03-15 08:59:24 51°23.181 2°46.394 5.924 3.222614 32.425366 -3.020363
2011-03-15 08:59:29 51°23.19 2°46.37 5.9281 3.224477 32.443408 -3.020363
2011-03-15 08:59:34 51°23.199 2°46.345 5.9292 3.225925 32.455929 -3.020363
2011-03-15 08:59:39 51°23.208 2°46.321 5.9275 3.225925 32.455929 -3.020363
2011-03-15 08:59:44 51°23.217 2°46.296 5.926 3.229029 32.486901 -3.020363
2011-03-15 08:59:49 51°23.226 2°46.272 5.9276 3.230995 32.505185 -3.020363
2011-03-15 08:59:54 51°23.235 2°46.247 5.9274 3.232961 32.525283 -3.020363
2011-03-15 08:59:59 51°23.244 2°46.222 5.9292 3.232961 32.525283 -3.020363
2011-03-15 09:00:04 51°23.253 2°46.197 5.9319 3.234513 32.540767 -3.020363
2011-03-15 09:00:09 51°23.262 2°46.173 5.9326 3.234513 32.540767 -3.020363
2011-03-15 09:00:14 51°23.271 2°46.148 5.9289 3.234099 32.536153 -3.020363
2011-03-15 09:00:19 51°23.28 2°46.123 5.9306 3.234927 32.544472 -3.020363
2011-03-15 09:00:24 51°23.289 2°46.099 5.9289 3.234306 32.537552 -3.020363
2011-03-15 09:00:29 51°23.298 2°46.074 5.9268 3.236065 32.556251 -3.020363
2011-03-15 09:00:34 51°23.307 2°46.05 5.9258 3.236169 32.555586 -3.020363
2011-03-15 09:00:39 51°23.316 2°46.025 5.9256 3.236169 32.555586 -3.020363
2011-03-15 09:00:44 51°23.325 2°46.001 5.9189 3.237721 32.571978 -3.020363
2011-03-15 09:00:49 51°23.334 2°45.976 5.9237 3.238756 32.582603 -3.020363
2011-03-15 09:00:54 51°23.343 2°45.952 5.9165 3.238445 32.579142 -3.020363
2011-03-15 09:00:59 51°23.353 2°45.927 5.9192 3.23948 32.591587 -3.020363
2011-03-15 09:01:04 51°23.362 2°45.902 5.9182 3.23917 32.589036 -3.020363
2011-03-15 09:01:09 51°23.371 2°45.877 5.9171 3.23917 32.589036 -3.020363
2011-03-15 09:01:14 51°23.38 2°45.852 5.9186 3.238238 32.580474 -3.020363
2011-03-15 09:01:19 51°23.389 2°45.828 5.9182 3.237411 32.573065 -3.020363
2011-03-15 09:01:24 51°23.398 2°45.803 5.9246 3.236376 32.563348 -3.020363
2011-03-15 09:01:29 51°23.408 2°45.778 5.9236 3.235652 32.557091 -3.020363
2011-03-15 09:01:34 51°23.416 2°45.753 5.9213 3.235548 32.556847 -3.020363
2011-03-15 09:01:39 51°23.425 2°45.728 5.9201 3.235548 32.556847 -3.020363
2011-03-15 09:01:44 51°23.434 2°45.704 5.9231 3.23472 32.548527 -3.020363
2011-03-15 09:01:49 51°23.443 2°45.679 5.9236 3.233996 32.540452 -3.020363
2011-03-15 09:01:54 51°23.452 2°45.654 5.927 3.233789 32.538145 -3.020363
2011-03-15 09:01:59 51°23.461 2°45.629 5.9267 3.235652 32.558 -3.020363
2011-03-15 09:02:04 51°23.47 2°45.604 5.9281 3.235962 32.561461 -3.020363
2011-03-15 09:02:09 51°23.479 2°45.58 5.9325 3.235962 32.561461 -3.020363
2011-03-15 09:02:14 51°23.488 2°45.555 5.9268 3.236479 32.56632 -3.020363
2011-03-15 09:02:19 51°23.497 2°45.53 5.9368 3.236997 32.571179 -3.020363
2011-03-15 09:02:24 51°23.506 2°45.505 5.9385 3.237514 32.575128 -3.020363
2011-03-15 09:02:29 51°23.515 2°45.48 5.9431 3.238238 32.581384 -3.020363
2011-03-15 09:02:34 51°23.524 2°45.455 5.9426 3.239894 32.598931 -3.020363
2011-03-15 09:02:38 51°23.531 2°45.435 5.9452 3.239894 32.598931 -3.020363
2011-03-15 09:02:44 51°23.542 2°45.405 5.9459 3.240515 32.604943 -3.020363
2011-03-15 09:02:49 51°23.551 2°45.38 5.945 3.240618 32.606097 -3.020363
2011-03-15 09:02:54 51°23.56 2°45.356 5.9495 3.242584 32.625284 -3.020363
2011-03-15 09:02:59 51°23.57 2°45.332 5.9492 3.245068 32.65024 -3.020363
2011-03-15 09:03:04 51°23.58 2°45.307 5.9506 3.247344 32.671974 -3.020363
2011-03-15 09:03:09 51°23.591 2°45.284 5.9514 3.247344 32.671974 -3.020363
2011-03-15 09:03:14 51°23.601 2°45.26 5.9519 3.248275 32.679621 -3.020363
2011-03-15 09:03:19 51°23.61 2°45.236 5.9527 3.248896 32.684719 -3.020363
2011-03-15 09:03:24 51°23.621 2°45.212 5.9525 3.250448 32.700199 -3.020363
2011-03-15 09:03:29 51°23.631 2°45.188 5.9521 3.251587 32.711064 -3.020363
2011-03-15 09:03:34 51°23.641 2°45.164 5.9545 3.251587 32.709238 -3.020363
2011-03-15 09:03:39 51°23.651 2°45.14 5.9563 3.251587 32.709238 -3.020363
2011-03-15 09:03:44 51°23.661 2°45.116 5.9571 3.252414 32.716641 -3.020363
2011-03-15 09:03:49 51°23.671 2°45.092 5.9665 3.252932 32.721496 -3.020363
2011-03-15 09:03:54 51°23.681 2°45.068 5.9662 3.25407 32.734186 -3.020363
2011-03-15 09:03:59 51°23.691 2°45.044 5.9681 3.254174 32.734426 -3.020363
2011-03-15 09:04:04 51°23.701 2°45.02 5.9675 3.254381 32.736733 -3.020363
2011-03-15 09:04:09 51°23.711 2°44.996 5.9731 3.254381 32.736733 -3.020363
2011-03-15 09:04:14 51°23.721 2°44.971 5.9748 3.253967 32.731206 -3.020363
2011-03-15 09:04:19 51°23.731 2°44.947 5.9766 3.254691 32.737454 -3.020363
2011-03-15 09:04:24 51°23.74 2°44.922 5.9753 3.256347 32.75317 -3.020363
2011-03-15 09:04:29 51°23.75 2°44.899 5.9745 3.25852 32.774653 -3.020363
2011-03-15 09:04:34 51°23.76 2°44.875 5.9713 3.260072 32.789213 -3.020363
2011-03-15 09:04:38 51°23.768 2°44.856 5.975 3.260072 32.789213 -3.020363
2011-03-15 09:04:44 51°23.78 2°44.827 5.9787 3.261107 32.798005 -3.020363
2011-03-15 09:04:49 51°23.79 2°44.802 5.9779 3.262245 32.807949 -3.020363
2011-03-15 09:04:54 51°23.799 2°44.778 5.9914 3.263176 32.8165 -3.020363
2011-03-15 09:04:58 51°23.808 2°44.759 5.9993 3.26359 32.820199 -3.020363
2011-03-15 09:05:04 51°23.819 2°44.729 6.0074 3.2639 32.822744 -3.020363
2011-03-15 09:05:09 51°23.829 2°44.705 6.0094 3.2639 32.822744 -3.020363
2011-03-15 09:05:14 51°23.838 2°44.681 6.0134 3.263797 32.82159 -3.020363
2011-03-15 09:05:19 51°23.848 2°44.656 6.0189 3.2639 32.820914 -3.020363
2011-03-15 09:05:24 51°23.857 2°44.631 6.0214 3.264418 32.825765 -3.020363
2011-03-15 09:05:29 51°23.865 2°44.606 6.0228 3.266177 32.840795 -3.020363
2011-03-15 09:05:34 51°23.873 2°44.581 6.0223 3.269695 32.873596 -3.020363
2011-03-15 09:05:39 51°23.882 2°44.555 6.024 3.269695 32.873596 -3.020363
2011-03-15 09:05:44 51°23.89 2°44.53 6.0261 3.272489 32.898319 -3.020363
2011-03-15 09:05:49 51°23.898 2°44.505 6.0267 3.27549 32.926259 -3.020363
2011-03-15 09:05:54 51°23.906 2°44.48 6.0265 3.27787 32.947277 -3.020363
2011-03-15 09:05:58 51°23.913 2°44.459 6.031 3.279526 32.962055 -3.020363
2011-03-15 09:06:04 51°23.923 2°44.429 6.0344 3.281078 32.976596 -3.020363
2011-03-15 09:06:09 51°23.931 2°44.404 6.0414 3.281078 32.976596 -3.020363
2011-03-15 09:06:14 51°23.94 2°44.379 6.0398 3.282009 32.984218 -3.020363
2011-03-15 09:06:19 51°23.948 2°44.354 6.0435 3.283044 32.992993 -3.020363
2011-03-15 09:06:24 51°23.957 2°44.328 6.0475 3.283976 33.001532 -3.020363
2011-03-15 09:06:29 51°23.965 2°44.303 6.0446 3.2847 33.007765 -3.020363
2011-03-15 09:06:34 51°23.974 2°44.278 6.0429 3.285631 33.015384 -3.020363
2011-03-15 09:06:39 51°23.982 2°44.253 6.045 3.285631 33.015384 -3.020363
2011-03-15 09:06:44 51°23.991 2°44.228 6.0481 3.28708 33.027848 -3.020363
2011-03-15 09:06:49 51°23.999 2°44.203 6.0466 3.288632 33.041462 -3.020363
2011-03-15 09:06:54 51°24.008 2°44.178 6.0474 3.289978 33.05277 -3.020363
2011-03-15 09:06:59 51°24.016 2°44.153 6.0423 3.291012 33.063378 -3.020363
2011-03-15 09:07:04 51°24.024 2°44.129 6.0403 3.291633 33.068454 -3.020363
2011-03-15 09:07:09 51°24.032 2°44.103 6.044 3.291633 33.068454 -3.020363
2011-03-15 09:07:14 51°24.041 2°44.078 6.0401 3.292254 33.075371 -3.020363
2011-03-15 09:07:19 51°24.05 2°44.054 6.0395 3.292772 33.079294 -3.020363
2011-03-15 09:07:24 51°24.06 2°44.03 6.0373 3.293289 33.084137 -3.020363
2011-03-15 09:07:29 51°24.071 2°44.007 6.0388 3.293496 33.086443 -3.020363
2011-03-15 09:07:34 51°24.083 2°43.985 6.0388 3.293186 33.083905 -3.020363
2011-03-15 09:07:39 51°24.094 2°43.963 6.0404 3.293186 33.083905 -3.020363
2011-03-15 09:07:44 51°24.106 2°43.942 6.04 3.292875 33.081367 -3.020363
2011-03-15 09:07:49 51°24.118 2°43.92 6.0434 3.292668 33.078141 -3.020363
2011-03-15 09:07:54 51°24.131 2°43.899 6.0422 3.292461 33.075835 -3.020363
2011-03-15 09:07:59 51°24.143 2°43.878 6.0432 3.292254 33.07445 -3.020363
2011-03-15 09:08:04 51°24.157 2°43.857 6.046 3.292047 33.072145 -3.020363
2011-03-15 09:08:09 51°24.17 2°43.838 6.0476 3.292047 33.072145 -3.020363
2011-03-15 09:08:14 51°24.185 2°43.82 6.0509 3.291944 33.070072 -3.020363
2011-03-15 09:08:19 51°24.199 2°43.801 6.0526 3.292151 33.072377 -3.020363
2011-03-15 09:08:24 51°24.213 2°43.783 6.0523 3.292461 33.075835 -3.020363
2011-03-15 09:08:29 51°24.229 2°43.767 6.0611 3.292668 33.077221 -3.020363
2011-03-15 09:08:34 51°24.245 2°43.753 6.0618 3.293082 33.080911 -3.020363
2011-03-15 09:08:39 51°24.262 2°43.74 6.067 3.293082 33.080911 -3.020363
2011-03-15 09:08:44 51°24.279 2°43.729 6.0655 3.293807 33.087139 -3.020363
2011-03-15 09:08:49 51°24.297 2°43.718 6.0685 3.294427 33.092214 -3.020363
2011-03-15 09:08:54 51°24.314 2°43.709 6.0722 3.295048 33.096368 -3.020363
2011-03-15 09:08:59 51°24.33 2°43.701 6.0734 3.295669 33.100521 -3.020363
2011-03-15 09:09:04 51°24.344 2°43.695 6.0732 3.296704 33.108363 -3.020363
2011-03-15 09:09:09 51°24.358 2°43.69 6.0742 3.296704 33.108363 -3.020363
2011-03-15 09:09:14 51°24.37 2°43.687 6.0746 3.298049 33.119661 -3.020363
2011-03-15 09:09:19 51°24.382 2°43.684 6.0757 3.299188 33.129574 -3.020363
2011-03-15 09:09:24 51°24.393 2°43.683 6.0766 3.300119 33.137181 -3.020363
2011-03-15 09:09:29 51°24.404 2°43.682 6.0774 3.300947 33.143635 -3.020363
2011-03-15 09:09:34 51°24.414 2°43.681 6.0779 3.301568 33.148706 -3.020363
2011-03-15 09:09:39 51°24.423 2°43.68 6.0818 3.301568 33.148706 -3.020363
2011-03-15 09:09:44 51°24.432 2°43.681 6.0847 3.302085 33.152624 -3.020363
2011-03-15 09:09:49 51°24.441 2°43.681 6.0859 3.302499 33.156311 -3.020363
2011-03-15 09:09:54 51°24.449 2°43.681 6.084 3.302913 33.16092 -3.020363
2011-03-15 09:09:59 51°24.457 2°43.682 6.0836 3.30312 33.162303 -3.020363
2011-03-15 09:10:04 51°24.465 2°43.682 6.0837 3.303534 33.16599 -3.020363
2011-03-15 09:10:09 51°24.472 2°43.683 6.0813 3.303534 33.16599 -3.020363
2011-03-15 09:10:14 51°24.479 2°43.684 6.0813 3.304051 33.169907 -3.020363
2011-03-15 09:10:18 51°24.484 2°43.684 6.0829 3.304776 33.176128 -3.020363
2011-03-15 09:10:24 51°24.492 2°43.685 6.0848 3.3055 33.182348 -3.020363
2011-03-15 09:10:29 51°24.498 2°43.687 6.0828 3.306121 33.189261 -3.020363
2011-03-15 09:10:34 51°24.504 2°43.688 6.0827 3.306328 33.191566 -3.020363
2011-03-15 09:10:39 51°24.509 2°43.689 6.0814 3.306328 33.191566 -3.020363
2011-03-15 09:10:44 51°24.514 2°43.691 6.0837 3.306432 33.192718 -3.020363
2011-03-15 09:10:49 51°24.52 2°43.692 6.0834 3.306432 33.192718 -3.020363
2011-03-15 09:10:54 51°24.525 2°43.693 6.0828 3.306432 33.192718 -3.020363
2011-03-15 09:10:59 51°24.53 2°43.694 6.0819 3.306432 33.192718 -3.020363
2011-03-15 09:11:04 51°24.534 2°43.696 6.0838 3.306328 33.191566 -3.020363
2011-03-15 09:11:09 51°24.539 2°43.697 6.0837 3.306328 33.191566 -3.020363
2011-03-15 09:11:14 51°24.544 2°43.699 6.0844 3.306432 33.192718 -3.020363
2011-03-15 09:11:19 51°24.549 2°43.7 6.0848 3.306432 33.19364 -3.020363
2011-03-15 09:11:24 51°24.553 2°43.701 6.0834 3.306328 33.192488 -3.020363
2011-03-15 09:11:29 51°24.558 2°43.702 6.0829 3.306432 33.19364 -3.020363
2011-03-15 09:11:34 51°24.562 2°43.704 6.0837 3.306432 33.192718 -3.020363
2011-03-15 09:11:39 51°24.567 2°43.705 6.083 3.306432 33.192718 -3.020363
2011-03-15 09:11:44 51°24.571 2°43.706 6.0828 3.306535 33.192947 -3.020363
2011-03-15 09:11:49 51°24.575 2°43.707 6.0863 3.306535 33.19387 -3.020363
2011-03-15 09:11:54 51°24.58 2°43.709 6.0862 3.306535 33.192947 -3.020363
2011-03-15 09:11:59 51°24.584 2°43.71 6.0853 3.306639 33.1941 -3.020363
2011-03-15 09:12:04 51°24.588 2°43.711 6.086 3.306639 33.195022 -3.020363
2011-03-15 09:12:09 51°24.592 2°43.712 6.085 3.306639 33.195022 -3.020363
2011-03-15 09:12:14 51°24.597 2°43.714 6.0845 3.306639 33.195022 -3.020363
2011-03-15 09:12:18 51°24.6 2°43.714 6.0851 3.306742 33.196174 -3.020363
2011-03-15 09:12:24 51°24.604 2°43.716 6.085 3.306742 33.195252 -3.020363
2011-03-15 09:12:29 51°24.608 2°43.717 6.0876 3.306742 33.195252 -3.020363
2011-03-15 09:12:34 51°24.611 2°43.718 6.0863 3.306846 33.195481 -3.020363
2011-03-15 09:12:38 51°24.614 2°43.719 6.0857 3.306846 33.195481 -3.020363
2011-03-15 09:12:44 51°24.619 2°43.72 6.087 3.306846 33.195481 -3.020363
2011-03-15 09:12:49 51°24.622 2°43.721 6.0875 3.306949 33.195711 -3.020363
2011-03-15 09:12:54 51°24.626 2°43.722 6.0902 3.306949 33.196634 -3.020363
2011-03-15 09:12:59 51°24.629 2°43.723 6.089 3.307053 33.197786 -3.020363
2011-03-15 09:13:04 51°24.633 2°43.724 6.0902 3.307053 33.197786 -3.020363
2011-03-15 09:13:09 51°24.637 2°43.724 6.088 3.307053 33.197786 -3.020363
2011-03-15 09:13:14 51°24.641 2°43.724 6.0898 3.307156 33.198938 -3.020363
2011-03-15 09:13:19 51°24.644 2°43.724 6.0877 3.307363 33.200319 -3.020363
2011-03-15 09:13:24 51°24.648 2°43.724 6.0902 3.307467 33.202394 -3.020363
2011-03-15 09:13:29 51°24.652 2°43.724 6.0917 3.30757 33.202624 -3.020363
2011-03-15 09:13:34 51°24.655 2°43.724 6.0925 3.307674 33.202853 -3.020363
2011-03-15 09:13:39 51°24.658 2°43.724 6.093 3.307674 33.202853 -3.020363
2011-03-15 09:13:44 51°24.661 2°43.724 6.093 3.30788 33.204235 -3.020363
2011-03-15 09:13:49 51°24.663 2°43.724 6.0938 3.307984 33.205387 -3.020363
2011-03-15 09:13:54 51°24.665 2°43.724 6.0956 3.308087 33.206539 -3.020363
2011-03-15 09:13:59 51°24.666 2°43.723 6.096 3.308398 33.209072 -3.020363
2011-03-15 09:14:04 51°24.668 2°43.724 6.0987 3.308708 33.211606 -3.020363
2011-03-15 09:14:09 51°24.67 2°43.723 6.095 3.308708 33.211606 -3.020363
2011-03-15 09:14:14 51°24.672 2°43.723 6.0963 3.309122 33.215291 -3.020363
2011-03-15 09:14:19 51°24.674 2°43.723 6.0969 3.309329 33.216673 -3.020363
2011-03-15 09:14:24 51°24.675 2°43.723 6.0962 3.309433 33.216902 -3.020363
2011-03-15 09:14:29 51°24.677 2°43.723 6.0972 3.30964 33.218283 -3.020363
2011-03-15 09:14:34 51°24.678 2°43.723 6.0928 3.309743 33.218512 -3.020363
2011-03-15 09:14:39 51°24.68 2°43.723 6.0926 3.309743 33.218512 -3.020363
2011-03-15 09:14:44 51°24.682 2°43.724 6.0912 3.30995 33.219893 -3.020363
2011-03-15 09:14:49 51°24.684 2°43.724 6.0918 3.310054 33.221968 -3.020363
2011-03-15 09:14:54 51°24.685 2°43.724 6.0919 3.310157 33.222197 -3.020363
2011-03-15 09:14:59 51°24.687 2°43.724 6.0933 3.310261 33.223349 -3.020363
2011-03-15 09:15:04 51°24.688 2°43.724 6.093 3.310157 33.22312 -3.020363
2011-03-15 09:15:09 51°24.69 2°43.724 6.0934 3.310157 33.22312 -3.020363
2011-03-15 09:15:14 51°24.691 2°43.725 6.0942 3.310054 33.222891 -3.020363
2011-03-15 09:15:18 51°24.693 2°43.725 6.0951 3.309433 33.216902 -3.020363
2011-03-15 09:15:24 51°24.695 2°43.725 6.0942 3.310054 33.224737 -3.020363
2011-03-15 09:15:29 51°24.696 2°43.725 6.0969 3.310054 33.223814 -3.020363
2011-03-15 09:15:34 51°24.698 2°43.725 6.0968 3.310054 33.223814 -3.020363
2011-03-15 09:15:38 51°24.699 2°43.725 6.0964 3.310054 33.223814 -3.020363
2011-03-15 09:15:44 51°24.701 2°43.725 6.1004 3.310054 33.223814 -3.020363
2011-03-15 09:15:49 51°24.702 2°43.725 6.0992 3.310157 33.224966 -3.020363
2011-03-15 09:15:54 51°24.703 2°43.725 6.1016 3.310157 33.224043 -3.020363
2011-03-15 09:15:59 51°24.705 2°43.726 6.1033 3.310364 33.225424 -3.020363
2011-03-15 09:16:04 51°24.706 2°43.726 6.1037 3.310364 33.225424 -3.020363
2011-03-15 09:16:09 51°24.708 2°43.726 6.0996 3.310364 33.225424 -3.020363
2011-03-15 09:16:14 51°24.709 2°43.727 6.0981 3.310364 33.225424 -3.020363
2011-03-15 09:16:19 51°24.71 2°43.727 6.0973 3.310468 33.225653 -3.020363
2011-03-15 09:16:24 51°24.712 2°43.727 6.0977 3.310468 33.22473 -3.020363
2011-03-15 09:16:29 51°24.713 2°43.727 6.0981 3.310468 33.222884 -3.020363
2011-03-15 09:16:34 51°24.714 2°43.727 6.0995 3.310571 33.223113 -3.020363
2011-03-15 09:16:38 51°24.715 2°43.727 6.0988 3.310571 33.223113 -3.020363
2011-03-15 09:16:44 51°24.717 2°43.727 6.0976 3.310571 33.223113 -3.020363
2011-03-15 09:16:49 51°24.717 2°43.727 6.0976 3.310571 33.223113 -3.020363
2011-03-15 09:16:54 51°24.718 2°43.727 6.0957 3.310468 33.222884 -3.020363
2011-03-15 09:16:59 51°24.718 2°43.726 6.0956 3.310364 33.222655 -3.020363
2011-03-15 09:17:04 51°24.718 2°43.726 6.0952 3.310261 33.222426 -3.020363
2011-03-15 09:17:09 51°24.718 2°43.726 6.0959 3.310261 33.222426 -3.020363
2011-03-15 09:17:14 51°24.717 2°43.725 6.0953 3.310157 33.221274 -3.020363
2011-03-15 09:17:19 51°24.717 2°43.725 6.0943 3.310261 33.222426 -3.020363
2011-03-15 09:17:24 51°24.716 2°43.725 6.0922 3.310261 33.222426 -3.020363
2011-03-15 09:17:29 51°24.714 2°43.725 6.0924 3.310261 33.223349 -3.020363
2011-03-15 09:17:34 51°24.713 2°43.725 6.0919 3.310157 33.222197 -3.020363
2011-03-15 09:17:39 51°24.71 2°43.726 6.091 3.310157 33.222197 -3.020363
2011-03-15 09:17:44 51°24.708 2°43.727 6.0912 3.310157 33.222197 -3.020363
2011-03-15 09:17:49 51°24.706 2°43.728 6.0906 3.310054 33.221968 -3.020363
2011-03-15 09:17:54 51°24.704 2°43.729 6.0899 3.30995 33.220816 -3.020363
2011-03-15 09:17:58 51°24.702 2°43.731 6.0896 3.309743 33.220358 -3.020363
2011-03-15 09:18:04 51°24.699 2°43.733 6.0891 3.30964 33.219206 -3.020363
2011-03-15 09:18:09 51°24.696 2°43.735 6.091 3.30964 33.219206 -3.020363
2011-03-15 09:18:14 51°24.693 2°43.737 6.0916 3.30964 33.219206 -3.020363
2011-03-15 09:18:19 51°24.691 2°43.74 6.091 3.309743 33.221281 -3.020363
2011-03-15 09:18:24 51°24.687 2°43.742 6.0901 3.309536 33.218977 -3.020363
2011-03-15 09:18:29 51°24.685 2°43.745 6.0888 3.309433 33.218748 -3.020363
2011-03-15 09:18:34 51°24.682 2°43.748 6.0875 3.309329 33.218518 -3.020363
2011-03-15 09:18:39 51°24.679 2°43.751 6.0923 3.309329 33.218518 -3.020363
2011-03-15 09:18:44 51°24.677 2°43.754 6.0896 3.309122 33.215291 -3.020363
2011-03-15 09:18:49 51°24.675 2°43.757 6.0907 3.309019 33.214139 -3.020363
2011-03-15 09:18:54 51°24.673 2°43.76 6.089 3.308915 33.212987 -3.020363
2011-03-15 09:18:59 51°24.671 2°43.764 6.0883 3.308915 33.212987 -3.020363
2011-03-15 09:19:04 51°24.67 2°43.767 6.0873 3.308812 33.211835 -3.020363
2011-03-15 09:19:09 51°24.668 2°43.77 6.0892 3.308812 33.211835 -3.020363
2011-03-15 09:19:14 51°24.667 2°43.773 6.0881 3.308812 33.211835 -3.020363
2011-03-15 09:19:19 51°24.666 2°43.776 6.087 3.308605 33.210454 -3.020363
2011-03-15 09:19:24 51°24.665 2°43.779 6.0883 3.308501 33.209302 -3.020363
2011-03-15 09:19:29 51°24.664 2°43.781 6.088 3.308398 33.20815 -3.020363
2011-03-15 09:19:34 51°24.663 2°43.784 6.0872 3.308294 33.20792 -3.020363
2011-03-15 09:19:39 51°24.663 2°43.786 6.0864 3.308294 33.20792 -3.020363
2011-03-15 09:19:44 51°24.663 2°43.787 6.0851 3.308191 33.207691 -3.020363
2011-03-15 09:19:49 51°24.663 2°43.787 6.0882 3.308087 33.206539 -3.020363
2011-03-15 09:19:54 51°24.664 2°43.786 6.0865 3.308087 33.206539 -3.020363
2011-03-15 09:19:59 51°24.666 2°43.785 6.0876 3.307984 33.205387 -3.020363
2011-03-15 09:20:04 51°24.667 2°43.782 6.0867 3.30788 33.205157 -3.020363
2011-03-15 09:20:09 51°24.669 2°43.779 6.0865 3.30788 33.205157 -3.020363
2011-03-15 09:20:14 51°24.67 2°43.775 6.0883 3.30788 33.205157 -3.020363
2011-03-15 09:20:19 51°24.671 2°43.769 6.0887 3.307984 33.207232 -3.020363
2011-03-15 09:20:24 51°24.671 2°43.763 6.0869 3.307984 33.207232 -3.020363
2011-03-15 09:20:29 51°24.672 2°43.756 6.0889 3.308191 33.211383 -3.020363
2011-03-15 09:20:34 51°24.672 2°43.749 6.0905 3.308191 33.211383 -3.020363
2011-03-15 09:20:39 51°24.672 2°43.743 6.0918 3.308191 33.211383 -3.020363
2011-03-15 09:20:44 51°24.672 2°43.738 6.0889 3.308191 33.211383 -3.020363
2011-03-15 09:20:49 51°24.672 2°43.733 6.0887 3.307984 33.210001 -3.020363
2011-03-15 09:20:54 51°24.672 2°43.73 6.0887 3.307881 33.208849 -3.020363
2011-03-15 09:20:58 51°24.672 2°43.727 6.0913 3.307467 33.20424 -3.020363
2011-03-15 09:21:04 51°24.672 2°43.725 6.0923 3.307363 33.202165 -3.020363
2011-03-15 09:21:09 51°24.673 2°43.725 6.0923 3.307363 33.202165 -3.020363